Time,TemperatureF,DewpointF,PressureIn,WindDirection,WindDirectionDegrees,WindSpeedMPH,WindSpeedGustMPH,Humidity,HourlyPrecipIn,Conditions,Clouds,dailyrainin,SoftwareType,DateUTC
2013-03-02 00:00:00,34.1,29.8,29.53,NNE,26,0.0,0.0,84,0.00,,OVC065,0.00,VWS V14.01,2013-03-02 05:00:00,
2013-03-02 00:01:00,34.1,30.1,29.53,NNE,26,0.0,0.0,85,0.00,,OVC026,0.00,VWS V14.01,2013-03-02 05:01:00,
2013-03-02 00:02:00,34.0,30.0,29.53,NNE,26,0.0,0.0,85,0.00,,OVC026,0.00,VWS V14.01,2013-03-02 05:02:00,
2013-03-02 00:03:00,34.0,30.0,29.53,NNE,26,0.0,0.0,85,0.00,,OVC026,0.00,VWS V14.01,2013-03-02 05:03:00,
2013-03-02 00:04:00,34.0,30.0,29.53,NE,39,0.0,2.0,85,0.00,,OVC026,0.00,VWS V14.01,2013-03-02 05:04:00,
2013-03-02 00:05:00,34.0,30.0,29.53,NNE,26,0.0,0.0,85,0.00,,OVC065,0.00,VWS V14.01,2013-03-02 05:05:00,
2013-03-02 00:06:00,33.9,29.6,29.53,NE,39,0.0,0.0,84,0.00,,OVC026,0.00,VWS V14.01,2013-03-02 05:06:00,
2013-03-02 00:07:00,33.9,29.6,29.53,NE,39,0.0,0.0,84,0.00,,OVC026,0.00,VWS V14.01,2013-03-02 05:07:00,
2013-03-02 00:08:00,33.9,29.6,29.53,NE,39,0.0,0.0,84,0.00,,OVC026,0.00,VWS V14.01,2013-03-02 05:08:00,
2013-03-02 00:09:00,33.9,29.6,29.53,NE,39,0.0,0.0,84,0.00,,OVC026,0.00,VWS V14.01,2013-03-02 05:09:00,
2013-03-02 00:10:00,33.9,29.6,29.53,NE,39,0.0,0.0,84,0.00,,OVC065,0.00,VWS V14.01,2013-03-02 05:10:00,
2013-03-02 00:11:00,33.9,29.6,29.54,NE,39,0.0,0.0,84,0.00,,OVC026,0.00,VWS V14.01,2013-03-02 05:11:00,
2013-03-02 00:12:00,33.8,29.8,29.54,NE,39,0.0,0.0,85,0.00,,OVC026,0.00,VWS V14.01,2013-03-02 05:12:00,
2013-03-02 00:13:00,33.9,29.9,29.54,NE,39,0.0,0.0,85,0.00,,OVC026,0.00,VWS V14.01,2013-03-02 05:13:00,
2013-03-02 00:14:00,33.8,29.8,29.54,NE,39,0.0,0.0,85,0.00,,OVC026,0.00,VWS V14.01,2013-03-02 05:14:00,
2013-03-02 00:15:00,33.9,29.9,29.54,NE,39,0.0,0.0,85,0.00,,OVC065,0.00,VWS V14.01,2013-03-02 05:15:00,
2013-03-02 00:16:00,33.8,29.8,29.53,NE,39,0.0,0.0,85,0.00,,OVC026,0.00,VWS V14.01,2013-03-02 05:16:00,
2013-03-02 00:17:00,33.8,29.8,29.53,NE,39,0.0,0.0,85,0.00,,OVC026,0.00,VWS V14.01,2013-03-02 05:17:00,
2013-03-02 00:18:00,33.8,29.8,29.54,NE,39,0.0,0.0,85,0.00,,OVC026,0.00,VWS V14.01,2013-03-02 05:18:00,
2013-03-02 00:19:00,33.8,29.8,29.54,NE,39,0.0,0.0,85,0.00,,OVC026,0.00,VWS V14.01,2013-03-02 05:19:00,
2013-03-02 00:20:00,33.8,29.8,29.54,NE,39,0.0,0.0,85,0.00,,OVC065,0.00,VWS V14.01,2013-03-02 05:20:00,
2013-03-02 00:21:00,33.7,29.7,29.53,NE,51,0.0,0.0,85,0.00,,OVC026,0.00,VWS V14.01,2013-03-02 05:21:00,
2013-03-02 00:22:00,33.7,29.7,29.53,ENE,69,0.0,0.0,85,0.00,,OVC026,0.00,VWS V14.01,2013-03-02 05:22:00,
2013-03-02 00:23:00,33.7,29.7,29.53,ENE,69,0.0,0.0,85,0.00,,OVC026,0.00,VWS V14.01,2013-03-02 05:23:00,
2013-03-02 00:24:00,33.7,29.4,29.53,ENE,69,0.0,0.0,84,0.00,,OVC026,0.00,VWS V14.01,2013-03-02 05:24:00,
2013-03-02 00:25:00,33.7,29.7,29.53,ENE,69,0.0,0.0,85,0.00,,OVC065,0.00,VWS V14.01,2013-03-02 05:25:00,
2013-03-02 00:26:00,33.7,29.4,29.53,NNW,334,2.0,2.0,84,0.00,,OVC026,0.00,VWS V14.01,2013-03-02 05:26:00,
2013-03-02 00:27:00,33.7,29.4,29.53,NNW,334,0.0,3.0,84,0.00,,OVC026,0.00,VWS V14.01,2013-03-02 05:27:00,
2013-03-02 00:28:00,33.7,29.4,29.53,NNW,334,0.0,0.0,84,0.00,,OVC026,0.00,VWS V14.01,2013-03-02 05:28:00,
2013-03-02 00:29:00,33.7,29.4,29.53,NNW,334,0.0,0.0,84,0.00,,OVC026,0.00,VWS V14.01,2013-03-02 05:29:00,
2013-03-02 00:30:00,33.7,29.4,29.53,NNW,334,0.0,0.0,84,0.00,,OVC065,0.00,VWS V14.01,2013-03-02 05:30:00,
2013-03-02 00:31:00,33.7,29.7,29.53,NNW,334,0.0,0.0,85,0.00,,OVC026,0.00,VWS V14.01,2013-03-02 05:31:00,
2013-03-02 00:32:00,33.7,29.7,29.53,NNW,334,0.0,0.0,85,0.00,,OVC026,0.00,VWS V14.01,2013-03-02 05:32:00,
2013-03-02 00:33:00,33.7,29.7,29.53,NNW,334,0.0,0.0,85,0.00,,OVC026,0.00,VWS V14.01,2013-03-02 05:33:00,
2013-03-02 00:34:00,33.7,29.7,29.54,NNW,334,0.0,0.0,85,0.00,,OVC026,0.00,VWS V14.01,2013-03-02 05:34:00,
2013-03-02 00:35:00,33.7,29.7,29.53,NNW,334,0.0,0.0,85,0.00,,OVC065,0.00,VWS V14.01,2013-03-02 05:35:00,
2013-03-02 00:36:00,33.7,29.7,29.53,NNW,334,0.0,0.0,85,0.00,,OVC026,0.00,VWS V14.01,2013-03-02 05:36:00,
2013-03-02 00:37:00,33.7,29.7,29.53,NNW,334,0.0,0.0,85,0.00,,OVC026,0.00,VWS V14.01,2013-03-02 05:37:00,
2013-03-02 00:38:00,33.7,29.7,29.53,NNW,334,0.0,0.0,85,0.00,,OVC026,0.00,VWS V14.01,2013-03-02 05:38:00,
2013-03-02 00:39:00,33.6,29.6,29.53,NNW,334,0.0,0.0,85,0.00,,OVC026,0.00,VWS V14.01,2013-03-02 05:39:00,
2013-03-02 00:40:00,33.7,29.7,29.53,NNW,334,0.0,0.0,85,0.00,,OVC065,0.00,VWS V14.01,2013-03-02 05:40:00,
2013-03-02 00:41:00,33.6,29.9,29.53,NNW,334,0.0,0.0,86,0.00,,OVC026,0.00,VWS V14.01,2013-03-02 05:41:00,
2013-03-02 00:42:00,33.6,29.9,29.53,NNW,334,0.0,0.0,86,0.00,,OVC026,0.00,VWS V14.01,2013-03-02 05:42:00,
2013-03-02 00:43:00,33.6,29.6,29.53,NNW,334,0.0,0.0,85,0.00,,OVC026,0.00,VWS V14.01,2013-03-02 05:43:00,
2013-03-02 00:44:00,33.6,29.6,29.53,NNW,334,0.0,0.0,85,0.00,,OVC026,0.00,VWS V14.01,2013-03-02 05:44:00,
2013-03-02 00:45:00,33.6,29.6,29.53,NNW,334,0.0,0.0,85,0.00,,OVC065,0.00,VWS V14.01,2013-03-02 05:45:00,
2013-03-02 00:46:00,33.5,29.5,29.53,NNW,334,0.0,0.0,85,0.00,,OVC026,0.00,VWS V14.01,2013-03-02 05:46:00,
2013-03-02 00:47:00,33.5,29.5,29.53,NNW,334,0.0,0.0,85,0.00,,OVC026,0.00,VWS V14.01,2013-03-02 05:47:00,
2013-03-02 00:48:00,33.5,29.5,29.53,NNW,334,0.0,0.0,85,0.00,,OVC026,0.00,VWS V14.01,2013-03-02 05:48:00,
2013-03-02 00:49:00,33.5,29.5,29.53,NNW,334,0.0,0.0,85,0.00,,OVC026,0.00,VWS V14.01,2013-03-02 05:49:00,
2013-03-02 00:50:00,33.5,29.5,29.53,NNW,334,0.0,0.0,85,0.00,,OVC065,0.00,VWS V14.01,2013-03-02 05:50:00,
2013-03-02 00:51:00,33.5,29.8,29.53,NNW,334,0.0,0.0,86,0.00,,OVC026,0.00,VWS V14.01,2013-03-02 05:51:00,
2013-03-02 00:52:00,33.5,29.8,29.53,NNW,340,0.0,0.0,86,0.00,,OVC026,0.00,VWS V14.01,2013-03-02 05:52:00,
2013-03-02 00:53:00,33.5,29.5,29.53,NNW,340,0.0,0.0,85,0.00,,OVC026,0.00,VWS V14.01,2013-03-02 05:53:00,
2013-03-02 00:54:00,33.5,29.5,29.53,NNW,341,0.0,0.0,85,0.00,,OVC026,0.00,VWS V14.01,2013-03-02 05:54:00,
2013-03-02 00:55:00,33.5,29.8,29.53,NNW,340,0.0,0.0,86,0.00,,OVC065,0.00,VWS V14.01,2013-03-02 05:55:00,
2013-03-02 00:56:00,33.5,29.5,29.53,NNW,341,0.0,0.0,85,0.00,,OVC026,0.00,VWS V14.01,2013-03-02 05:56:00,
2013-03-02 00:57:00,33.4,29.4,29.53,NNW,341,0.0,0.0,85,0.00,,OVC026,0.00,VWS V14.01,2013-03-02 05:57:00,
2013-03-02 00:58:00,33.4,29.4,29.53,NNW,341,0.0,0.0,85,0.00,,OVC026,0.00,VWS V14.01,2013-03-02 05:58:00,
2013-03-02 00:59:00,33.5,29.5,29.53,East,80,0.0,0.0,85,0.00,,OVC026,0.00,VWS V14.01,2013-03-02 05:59:00,
2013-03-02 01:00:00,33.5,29.5,29.53,NNW,341,0.0,0.0,85,0.00,,OVC070,0.00,VWS V14.01,2013-03-02 06:00:00,
2013-03-02 01:01:00,33.4,29.4,29.53,East,82,0.0,0.0,85,0.00,,OVC026,0.00,VWS V14.01,2013-03-02 06:01:00,
2013-03-02 01:02:00,33.4,29.4,29.53,SSE,166,1.0,3.0,85,0.00,,OVC026,0.00,VWS V14.01,2013-03-02 06:02:00,
2013-03-02 01:03:00,33.5,29.5,29.53,SSE,166,0.0,1.0,85,0.00,,OVC026,0.00,VWS V14.01,2013-03-02 06:03:00,
2013-03-02 01:04:00,33.5,29.8,29.53,SSE,166,0.0,0.0,86,0.00,,OVC026,0.00,VWS V14.01,2013-03-02 06:04:00,
2013-03-02 01:05:00,33.5,29.5,29.53,SSE,166,0.0,1.0,85,0.00,,OVC070,0.00,VWS V14.01,2013-03-02 06:05:00,
2013-03-02 01:06:00,33.5,29.8,29.53,SSE,167,0.0,0.0,86,0.00,,OVC026,0.00,VWS V14.01,2013-03-02 06:06:00,
2013-03-02 01:07:00,33.4,29.7,29.53,SSE,167,0.0,0.0,86,0.00,,OVC026,0.00,VWS V14.01,2013-03-02 06:07:00,
2013-03-02 01:08:00,33.4,29.7,29.53,SSE,167,0.0,0.0,86,0.00,,OVC026,0.00,VWS V14.01,2013-03-02 06:08:00,
2013-03-02 01:09:00,33.4,29.7,29.53,SSE,167,0.0,0.0,86,0.00,,OVC026,0.00,VWS V14.01,2013-03-02 06:09:00,
2013-03-02 01:10:00,33.5,29.8,29.53,SSE,167,0.0,0.0,86,0.00,,OVC070,0.00,VWS V14.01,2013-03-02 06:10:00,
2013-03-02 01:11:00,33.5,29.5,29.53,North,5,0.0,3.0,85,0.00,,OVC026,0.00,VWS V14.01,2013-03-02 06:11:00,
2013-03-02 01:12:00,33.5,29.5,29.53,North,5,0.0,0.0,85,0.00,,OVC026,0.00,VWS V14.01,2013-03-02 06:12:00,
2013-03-02 01:13:00,33.5,29.5,29.53,North,5,0.0,0.0,85,0.00,,OVC026,0.00,VWS V14.01,2013-03-02 06:13:00,
2013-03-02 01:14:00,33.5,29.5,29.53,NNE,17,0.0,0.0,85,0.00,,OVC026,0.00,VWS V14.01,2013-03-02 06:14:00,
2013-03-02 01:15:00,33.5,29.5,29.53,North,5,0.0,0.0,85,0.00,,OVC070,0.00,VWS V14.01,2013-03-02 06:15:00,
2013-03-02 01:16:00,33.6,29.6,29.53,SW,231,0.0,1.0,85,0.00,,OVC026,0.00,VWS V14.01,2013-03-02 06:16:00,
2013-03-02 01:17:00,33.6,29.6,29.53,SW,231,0.0,1.0,85,0.00,,OVC026,0.00,VWS V14.01,2013-03-02 06:17:00,
2013-03-02 01:18:00,33.6,29.6,29.53,SW,232,0.0,0.0,85,0.00,,OVC026,0.00,VWS V14.01,2013-03-02 06:18:00,
2013-03-02 01:19:00,33.6,29.6,29.53,SW,232,0.0,1.0,85,0.00,,OVC026,0.00,VWS V14.01,2013-03-02 06:19:00,
2013-03-02 01:20:00,33.6,29.6,29.53,SW,232,0.0,0.0,85,0.00,,OVC070,0.00,VWS V14.01,2013-03-02 06:20:00,
2013-03-02 01:21:00,33.6,29.6,29.53,SW,232,0.0,0.0,85,0.00,,OVC026,0.00,VWS V14.01,2013-03-02 06:21:00,
2013-03-02 01:22:00,33.6,29.6,29.53,SW,232,0.0,0.0,85,0.00,,OVC026,0.00,VWS V14.01,2013-03-02 06:22:00,
2013-03-02 01:23:00,33.6,29.6,29.53,SW,232,0.0,0.0,85,0.00,,OVC026,0.00,VWS V14.01,2013-03-02 06:23:00,
2013-03-02 01:24:00,33.7,29.4,29.53,SW,232,0.0,0.0,84,0.00,,OVC026,0.00,VWS V14.01,2013-03-02 06:24:00,
2013-03-02 01:25:00,33.6,29.6,29.53,SW,232,0.0,0.0,85,0.00,,OVC070,0.00,VWS V14.01,2013-03-02 06:25:00,
2013-03-02 01:26:00,33.6,29.6,29.53,SW,232,0.0,0.0,85,0.00,,OVC026,0.00,VWS V14.01,2013-03-02 06:26:00,
2013-03-02 01:27:00,33.7,29.7,29.53,SW,232,0.0,0.0,85,0.00,,OVC026,0.00,VWS V14.01,2013-03-02 06:27:00,
2013-03-02 01:28:00,33.7,29.7,29.53,SW,232,0.0,0.0,85,0.00,,OVC026,0.00,VWS V14.01,2013-03-02 06:28:00,
2013-03-02 01:29:00,33.6,29.9,29.53,SW,232,0.0,0.0,86,0.00,,OVC026,0.00,VWS V14.01,2013-03-02 06:29:00,
2013-03-02 01:30:00,33.6,29.6,29.53,SW,232,0.0,0.0,85,0.00,,OVC070,0.00,VWS V14.01,2013-03-02 06:30:00,
2013-03-02 01:31:00,33.6,29.9,29.53,SW,232,0.0,0.0,86,0.00,,OVC026,0.00,VWS V14.01,2013-03-02 06:31:00,
2013-03-02 01:32:00,33.6,29.9,29.53,SW,232,0.0,0.0,86,0.00,,OVC026,0.00,VWS V14.01,2013-03-02 06:32:00,
2013-03-02 01:33:00,33.6,29.9,29.53,SW,232,0.0,0.0,86,0.00,,OVC026,0.00,VWS V14.01,2013-03-02 06:33:00,
2013-03-02 01:34:00,33.6,29.9,29.53,South,190,0.0,2.0,86,0.00,,OVC026,0.00,VWS V14.01,2013-03-02 06:34:00,
2013-03-02 01:35:00,33.7,30.0,29.53,SW,232,0.0,0.0,86,0.00,,OVC070,0.00,VWS V14.01,2013-03-02 06:35:00,
2013-03-02 01:36:00,33.6,29.9,29.53,South,190,0.0,1.0,86,0.00,,OVC026,0.00,VWS V14.01,2013-03-02 06:36:00,
2013-03-02 01:37:00,33.6,29.9,29.53,SSE,160,2.0,2.0,86,0.00,,OVC026,0.00,VWS V14.01,2013-03-02 06:37:00,
2013-03-02 01:38:00,33.6,29.9,29.53,SE,128,0.0,3.0,86,0.00,,OVC026,0.00,VWS V14.01,2013-03-02 06:38:00,
2013-03-02 01:39:00,33.6,29.9,29.53,SE,129,0.0,1.0,86,0.00,,OVC026,0.00,VWS V14.01,2013-03-02 06:39:00,
2013-03-02 01:40:00,33.6,29.9,29.53,SE,128,0.0,3.0,86,0.00,,OVC070,0.00,VWS V14.01,2013-03-02 06:40:00,
2013-03-02 01:41:00,33.6,29.9,29.53,SE,142,2.0,3.0,86,0.00,,OVC026,0.00,VWS V14.01,2013-03-02 06:41:00,
2013-03-02 01:42:00,33.6,29.9,29.53,SSE,165,2.0,4.0,86,0.00,,OVC026,0.00,VWS V14.01,2013-03-02 06:42:00,
2013-03-02 01:43:00,33.6,29.9,29.53,SSE,166,0.0,2.0,86,0.00,,OVC026,0.00,VWS V14.01,2013-03-02 06:43:00,
2013-03-02 01:44:00,33.6,29.9,29.52,SSE,166,0.0,1.0,86,0.00,,OVC026,0.00,VWS V14.01,2013-03-02 06:44:00,
2013-03-02 01:45:00,33.6,29.9,29.53,SSE,166,0.0,2.0,86,0.00,,OVC070,0.00,VWS V14.01,2013-03-02 06:45:00,
2013-03-02 01:46:00,33.6,29.9,29.52,SSE,166,0.0,1.0,86,0.00,,OVC026,0.00,VWS V14.01,2013-03-02 06:46:00,
2013-03-02 01:47:00,33.5,29.8,29.52,SSE,168,0.0,2.0,86,0.00,,OVC026,0.00,VWS V14.01,2013-03-02 06:47:00,
2013-03-02 01:48:00,33.5,29.8,29.52,SSE,168,0.0,0.0,86,0.00,,OVC026,0.00,VWS V14.01,2013-03-02 06:48:00,
2013-03-02 01:49:00,33.5,29.8,29.52,SSE,168,0.0,0.0,86,0.00,,OVC026,0.00,VWS V14.01,2013-03-02 06:49:00,
2013-03-02 01:50:00,33.6,29.9,29.52,SSE,168,0.0,0.0,86,0.00,,OVC070,0.00,VWS V14.01,2013-03-02 06:50:00,
2013-03-02 01:51:00,33.5,29.8,29.52,SSE,168,1.0,1.0,86,0.00,,OVC026,0.00,VWS V14.01,2013-03-02 06:51:00,
2013-03-02 01:52:00,33.5,29.5,29.52,East,98,0.0,3.0,85,0.00,,OVC026,0.00,VWS V14.01,2013-03-02 06:52:00,
2013-03-02 01:53:00,33.5,29.5,29.52,ESE,121,0.0,0.0,85,0.00,,OVC026,0.00,VWS V14.01,2013-03-02 06:53:00,
2013-03-02 01:54:00,33.5,29.5,29.52,South,175,1.0,2.0,85,0.00,,OVC026,0.00,VWS V14.01,2013-03-02 06:54:00,
2013-03-02 01:55:00,33.5,29.5,29.52,ESE,118,0.0,0.0,85,0.00,,OVC070,0.00,VWS V14.01,2013-03-02 06:55:00,
2013-03-02 01:56:00,33.5,29.5,29.52,South,175,0.0,0.0,85,0.00,,OVC026,0.00,VWS V14.01,2013-03-02 06:56:00,
2013-03-02 01:57:00,33.5,29.5,29.52,South,175,0.0,0.0,85,0.00,,OVC026,0.00,VWS V14.01,2013-03-02 06:57:00,
2013-03-02 01:58:00,33.5,29.8,29.52,South,175,0.0,0.0,86,0.00,,OVC026,0.00,VWS V14.01,2013-03-02 06:58:00,
2013-03-02 01:59:00,33.5,29.8,29.52,South,175,0.0,1.0,86,0.00,,OVC026,0.00,VWS V14.01,2013-03-02 06:59:00,
2013-03-02 02:00:00,33.5,29.5,29.52,South,175,0.0,0.0,85,0.00,,OVC030,0.00,VWS V14.01,2013-03-02 07:00:00,
2013-03-02 02:01:00,33.5,29.8,29.52,South,175,0.0,0.0,86,0.00,,OVC026,0.00,VWS V14.01,2013-03-02 07:01:00,
2013-03-02 02:02:00,33.5,29.8,29.52,South,175,0.0,1.0,86,0.00,,OVC026,0.00,VWS V14.01,2013-03-02 07:02:00,
2013-03-02 02:03:00,33.5,29.8,29.52,South,175,0.0,0.0,86,0.00,,OVC026,0.00,VWS V14.01,2013-03-02 07:03:00,
2013-03-02 02:04:00,33.5,29.8,29.52,South,175,0.0,0.0,86,0.00,,OVC026,0.00,VWS V14.01,2013-03-02 07:04:00,
2013-03-02 02:05:00,33.5,29.8,29.52,South,175,0.0,0.0,86,0.00,,OVC030,0.00,VWS V14.01,2013-03-02 07:05:00,
2013-03-02 02:06:00,33.5,29.8,29.52,South,175,0.0,0.0,86,0.00,,OVC026,0.00,VWS V14.01,2013-03-02 07:06:00,
2013-03-02 02:07:00,33.5,29.8,29.52,South,175,0.0,1.0,86,0.00,,OVC026,0.00,VWS V14.01,2013-03-02 07:07:00,
2013-03-02 02:08:00,33.5,29.8,29.52,South,175,0.0,0.0,86,0.00,,OVC026,0.00,VWS V14.01,2013-03-02 07:08:00,
2013-03-02 02:09:00,33.5,29.8,29.52,South,175,0.0,2.0,86,0.00,,OVC026,0.00,VWS V14.01,2013-03-02 07:09:00,
2013-03-02 02:10:00,33.5,29.8,29.52,South,175,0.0,0.0,86,0.00,,OVC030,0.00,VWS V14.01,2013-03-02 07:10:00,
2013-03-02 02:11:00,33.5,29.8,29.52,South,175,1.0,3.0,86,0.00,,OVC026,0.00,VWS V14.01,2013-03-02 07:11:00,
2013-03-02 02:12:00,33.5,29.8,29.52,South,175,0.0,1.0,86,0.00,,OVC026,0.00,VWS V14.01,2013-03-02 07:12:00,
2013-03-02 02:13:00,33.4,29.7,29.52,South,175,0.0,0.0,86,0.00,,OVC026,0.00,VWS V14.01,2013-03-02 07:13:00,
2013-03-02 02:14:00,33.4,29.7,29.52,South,175,0.0,0.0,86,0.00,,OVC026,0.00,VWS V14.01,2013-03-02 07:14:00,
2013-03-02 02:15:00,33.4,29.7,29.52,South,175,0.0,0.0,86,0.00,,OVC030,0.00,VWS V14.01,2013-03-02 07:15:00,
2013-03-02 02:16:00,33.4,30.0,29.52,SSE,161,0.0,2.0,87,0.00,,OVC026,0.00,VWS V14.01,2013-03-02 07:16:00,
2013-03-02 02:17:00,33.4,29.7,29.52,SSE,161,0.0,1.0,86,0.00,,OVC026,0.00,VWS V14.01,2013-03-02 07:17:00,
2013-03-02 02:18:00,33.4,29.7,29.52,SSE,161,0.0,0.0,86,0.00,,OVC026,0.00,VWS V14.01,2013-03-02 07:18:00,
2013-03-02 02:19:00,33.4,29.7,29.52,SSE,161,0.0,0.0,86,0.00,,OVC026,0.00,VWS V14.01,2013-03-02 07:19:00,
2013-03-02 02:20:00,33.4,29.7,29.52,SSE,161,0.0,0.0,86,0.00,,OVC030,0.00,VWS V14.01,2013-03-02 07:20:00,
2013-03-02 02:21:00,33.4,29.7,29.52,SSE,160,0.0,1.0,86,0.00,,OVC026,0.00,VWS V14.01,2013-03-02 07:21:00,
2013-03-02 02:22:00,33.4,29.7,29.52,SSE,161,0.0,2.0,86,0.00,,OVC026,0.00,VWS V14.01,2013-03-02 07:22:00,
2013-03-02 02:23:00,33.4,29.7,29.52,SE,128,0.0,2.0,86,0.00,,OVC026,0.00,VWS V14.01,2013-03-02 07:23:00,
2013-03-02 02:24:00,33.4,29.7,29.52,SE,140,0.0,1.0,86,0.00,,OVC026,0.00,VWS V14.01,2013-03-02 07:24:00,
2013-03-02 02:25:00,33.4,29.7,29.52,SE,130,1.0,1.0,86,0.00,,OVC030,0.00,VWS V14.01,2013-03-02 07:25:00,
2013-03-02 02:26:00,33.4,29.7,29.52,SE,140,0.0,0.0,86,0.00,,OVC026,0.00,VWS V14.01,2013-03-02 07:26:00,
2013-03-02 02:27:00,33.4,29.4,29.52,SE,140,0.0,0.0,85,0.00,,OVC026,0.00,VWS V14.01,2013-03-02 07:27:00,
2013-03-02 02:28:00,33.3,29.6,29.52,SE,140,0.0,0.0,86,0.00,,OVC026,0.00,VWS V14.01,2013-03-02 07:28:00,
2013-03-02 02:29:00,33.3,29.6,29.52,SE,140,0.0,0.0,86,0.00,,OVC026,0.00,VWS V14.01,2013-03-02 07:29:00,
2013-03-02 02:30:00,33.4,29.4,29.52,SE,140,0.0,0.0,85,0.00,,OVC030,0.00,VWS V14.01,2013-03-02 07:30:00,
2013-03-02 02:31:00,33.4,29.7,29.52,SSE,160,0.0,2.0,86,0.00,,OVC026,0.00,VWS V14.01,2013-03-02 07:31:00,
2013-03-02 02:32:00,33.3,29.6,29.52,SSE,160,0.0,1.0,86,0.00,,OVC026,0.00,VWS V14.01,2013-03-02 07:32:00,
2013-03-02 02:33:00,33.3,29.3,29.52,SSE,160,0.0,0.0,85,0.00,,OVC026,0.00,VWS V14.01,2013-03-02 07:33:00,
2013-03-02 02:34:00,33.3,29.3,29.52,SSE,160,0.0,0.0,85,0.00,,OVC026,0.00,VWS V14.01,2013-03-02 07:34:00,
2013-03-02 02:35:00,33.3,29.6,29.52,SSE,160,0.0,0.0,86,0.00,,OVC030,0.00,VWS V14.01,2013-03-02 07:35:00,
2013-03-02 02:36:00,33.3,29.3,29.52,ESE,114,1.0,1.0,85,0.00,,OVC026,0.00,VWS V14.01,2013-03-02 07:36:00,
2013-03-02 02:37:00,33.3,29.3,29.52,East,88,0.0,1.0,85,0.00,,OVC026,0.00,VWS V14.01,2013-03-02 07:37:00,
2013-03-02 02:38:00,33.3,29.3,29.52,ESE,115,0.0,1.0,85,0.00,,OVC026,0.00,VWS V14.01,2013-03-02 07:38:00,
2013-03-02 02:39:00,33.3,29.3,29.52,ESE,115,0.0,1.0,85,0.00,,OVC026,0.00,VWS V14.01,2013-03-02 07:39:00,
2013-03-02 02:40:00,33.3,29.3,29.52,ESE,114,0.0,1.0,85,0.00,,OVC030,0.00,VWS V14.01,2013-03-02 07:40:00,
2013-03-02 02:41:00,33.3,29.6,29.52,ESE,115,0.0,0.0,86,0.00,,OVC026,0.00,VWS V14.01,2013-03-02 07:41:00,
2013-03-02 02:42:00,33.3,29.6,29.52,ESE,102,0.0,2.0,86,0.00,,OVC026,0.00,VWS V14.01,2013-03-02 07:42:00,
2013-03-02 02:43:00,33.3,29.6,29.52,East,87,0.0,2.0,86,0.00,,OVC026,0.00,VWS V14.01,2013-03-02 07:43:00,
2013-03-02 02:44:00,33.4,29.4,29.52,SSE,168,0.0,3.0,85,0.00,,OVC026,0.00,VWS V14.01,2013-03-02 07:44:00,
2013-03-02 02:45:00,33.3,29.6,29.52,NNE,15,0.0,2.0,86,0.00,,OVC030,0.00,VWS V14.01,2013-03-02 07:45:00,
2013-03-02 02:46:00,33.4,29.4,29.52,SSE,158,0.0,1.0,85,0.00,,OVC026,0.00,VWS V14.01,2013-03-02 07:46:00,
2013-03-02 02:47:00,33.4,29.7,29.52,SSE,158,0.0,0.0,86,0.00,,OVC026,0.00,VWS V14.01,2013-03-02 07:47:00,
2013-03-02 02:48:00,33.4,29.7,29.52,SSE,158,0.0,0.0,86,0.00,,OVC026,0.00,VWS V14.01,2013-03-02 07:48:00,
2013-03-02 02:49:00,33.4,29.7,29.52,South,184,1.0,3.0,86,0.00,,OVC026,0.00,VWS V14.01,2013-03-02 07:49:00,
2013-03-02 02:50:00,33.3,29.6,29.52,SSE,158,0.0,0.0,86,0.00,,OVC030,0.00,VWS V14.01,2013-03-02 07:50:00,
2013-03-02 02:51:00,33.4,29.7,29.52,South,173,0.0,2.0,86,0.00,,OVC026,0.00,VWS V14.01,2013-03-02 07:51:00,
2013-03-02 02:52:00,33.4,29.4,29.52,South,173,0.0,0.0,85,0.00,,OVC026,0.00,VWS V14.01,2013-03-02 07:52:00,
2013-03-02 02:53:00,33.3,29.6,29.52,South,173,0.0,0.0,86,0.00,,OVC026,0.00,VWS V14.01,2013-03-02 07:53:00,
2013-03-02 02:54:00,33.4,29.7,29.52,South,180,0.0,2.0,86,0.00,,OVC026,0.00,VWS V14.01,2013-03-02 07:54:00,
2013-03-02 02:55:00,33.4,29.7,29.52,South,173,0.0,0.0,86,0.00,,OVC030,0.00,VWS V14.01,2013-03-02 07:55:00,
2013-03-02 02:56:00,33.4,29.7,29.52,South,180,0.0,0.0,86,0.00,,OVC026,0.00,VWS V14.01,2013-03-02 07:56:00,
2013-03-02 02:57:00,33.3,29.6,29.52,South,178,0.0,2.0,86,0.00,,OVC026,0.00,VWS V14.01,2013-03-02 07:57:00,
2013-03-02 02:59:00,33.3,29.6,29.52,South,178,0.0,0.0,86,0.00,,OVC026,0.00,VWS V14.01,2013-03-02 07:59:00,
2013-03-02 03:00:00,33.3,29.6,29.52,South,178,0.0,0.0,86,0.00,,BKN070,0.00,VWS V14.01,2013-03-02 08:00:00,
2013-03-02 03:02:00,33.3,29.3,29.52,South,178,0.0,0.0,85,0.00,,OVC026,0.00,VWS V14.01,2013-03-02 08:02:00,
2013-03-02 03:03:00,33.3,29.3,29.52,South,178,0.0,0.0,85,0.00,,OVC026,0.00,VWS V14.01,2013-03-02 08:03:00,
2013-03-02 03:04:00,33.3,29.3,29.52,South,178,0.0,0.0,85,0.00,,OVC026,0.00,VWS V14.01,2013-03-02 08:04:00,
2013-03-02 03:05:00,33.3,29.3,29.52,South,178,0.0,0.0,85,0.00,,BKN070,0.00,VWS V14.01,2013-03-02 08:05:00,
2013-03-02 03:06:00,33.3,29.3,29.52,South,178,0.0,0.0,85,0.00,,OVC026,0.00,VWS V14.01,2013-03-02 08:06:00,
2013-03-02 03:07:00,33.3,29.3,29.52,South,178,0.0,1.0,85,0.00,,OVC026,0.00,VWS V14.01,2013-03-02 08:07:00,
2013-03-02 03:08:00,33.2,29.5,29.52,South,178,0.0,0.0,86,0.00,,OVC026,0.00,VWS V14.01,2013-03-02 08:08:00,
2013-03-02 03:09:00,33.2,29.5,29.52,South,178,0.0,0.0,86,0.00,,OVC026,0.00,VWS V14.01,2013-03-02 08:09:00,
2013-03-02 03:10:00,33.2,29.2,29.52,South,178,0.0,0.0,85,0.00,,BKN070,0.00,VWS V14.01,2013-03-02 08:10:00,
2013-03-02 03:11:00,33.2,29.5,29.52,North,11,1.0,3.0,86,0.00,,OVC026,0.00,VWS V14.01,2013-03-02 08:11:00,
2013-03-02 03:12:00,33.2,29.5,29.52,North,11,0.0,2.0,86,0.00,,OVC026,0.00,VWS V14.01,2013-03-02 08:12:00,
2013-03-02 03:13:00,33.2,29.5,29.52,North,11,0.0,0.0,86,0.00,,OVC026,0.00,VWS V14.01,2013-03-02 08:13:00,
2013-03-02 03:14:00,33.2,29.5,29.52,SSE,165,0.0,2.0,86,0.00,,OVC026,0.00,VWS V14.01,2013-03-02 08:14:00,
2013-03-02 03:15:00,33.2,29.5,29.52,North,11,0.0,0.0,86,0.00,,BKN070,0.00,VWS V14.01,2013-03-02 08:15:00,
2013-03-02 03:16:00,33.2,29.5,29.52,SSE,165,0.0,0.0,86,0.00,,OVC026,0.00,VWS V14.01,2013-03-02 08:16:00,
2013-03-02 03:17:00,33.2,29.5,29.52,SSE,165,0.0,0.0,86,0.00,,OVC026,0.00,VWS V14.01,2013-03-02 08:17:00,
2013-03-02 03:18:00,33.2,29.5,29.52,SSE,165,0.0,0.0,86,0.00,,OVC026,0.00,VWS V14.01,2013-03-02 08:18:00,
2013-03-02 03:19:00,33.2,29.5,29.52,South,188,0.0,4.0,86,0.00,,OVC026,0.00,VWS V14.01,2013-03-02 08:19:00,
2013-03-02 03:20:00,33.2,29.5,29.52,SSE,165,0.0,0.0,86,0.00,,BKN070,0.00,VWS V14.01,2013-03-02 08:20:00,
2013-03-02 03:21:00,33.2,29.5,29.52,South,188,0.0,0.0,86,0.00,,OVC026,0.00,VWS V14.01,2013-03-02 08:21:00,
2013-03-02 03:22:00,33.2,29.5,29.52,South,188,0.0,0.0,86,0.00,,OVC026,0.00,VWS V14.01,2013-03-02 08:22:00,
2013-03-02 03:23:00,33.2,29.5,29.52,South,188,0.0,0.0,86,0.00,,OVC026,0.00,VWS V14.01,2013-03-02 08:23:00,
2013-03-02 03:24:00,33.2,29.5,29.52,South,188,0.0,1.0,86,0.00,,OVC026,0.00,VWS V14.01,2013-03-02 08:24:00,
2013-03-02 03:25:00,33.2,29.5,29.52,South,188,0.0,0.0,86,0.00,,BKN070,0.00,VWS V14.01,2013-03-02 08:25:00,
2013-03-02 03:26:00,33.2,29.5,29.52,South,188,0.0,0.0,86,0.00,,OVC026,0.00,VWS V14.01,2013-03-02 08:26:00,
2013-03-02 03:27:00,33.2,29.2,29.52,South,188,0.0,0.0,85,0.00,,OVC026,0.00,VWS V14.01,2013-03-02 08:27:00,
2013-03-02 03:28:00,33.1,29.1,29.52,South,188,0.0,0.0,85,0.00,,OVC026,0.00,VWS V14.01,2013-03-02 08:28:00,
2013-03-02 03:29:00,33.2,29.2,29.52,South,188,0.0,0.0,85,0.00,,OVC026,0.00,VWS V14.01,2013-03-02 08:29:00,
2013-03-02 03:30:00,33.2,29.2,29.52,South,188,0.0,0.0,85,0.00,,BKN070,0.00,VWS V14.01,2013-03-02 08:30:00,
2013-03-02 03:31:00,33.2,29.5,29.52,South,188,0.0,0.0,86,0.00,,OVC026,0.00,VWS V14.01,2013-03-02 08:31:00,
2013-03-02 03:32:00,33.2,29.5,29.52,South,188,0.0,0.0,86,0.00,,OVC026,0.00,VWS V14.01,2013-03-02 08:32:00,
2013-03-02 03:33:00,33.2,29.5,29.52,South,188,0.0,2.0,86,0.00,,OVC026,0.00,VWS V14.01,2013-03-02 08:33:00,
2013-03-02 03:34:00,33.1,29.4,29.52,South,188,0.0,0.0,86,0.00,,OVC026,0.00,VWS V14.01,2013-03-02 08:34:00,
2013-03-02 03:35:00,33.1,29.4,29.52,South,188,0.0,2.0,86,0.00,,BKN070,0.00,VWS V14.01,2013-03-02 08:35:00,
2013-03-02 03:36:00,33.1,29.4,29.52,South,188,0.0,0.0,86,0.00,,OVC026,0.00,VWS V14.01,2013-03-02 08:36:00,
2013-03-02 03:37:00,33.1,29.4,29.52,South,188,0.0,0.0,86,0.00,,OVC026,0.00,VWS V14.01,2013-03-02 08:37:00,
2013-03-02 03:38:00,33.1,29.4,29.52,South,188,0.0,1.0,86,0.00,,OVC026,0.00,VWS V14.01,2013-03-02 08:38:00,
2013-03-02 03:39:00,33.1,29.4,29.52,South,188,0.0,0.0,86,0.00,,OVC026,0.00,VWS V14.01,2013-03-02 08:39:00,
2013-03-02 03:40:00,33.1,29.4,29.52,South,188,0.0,1.0,86,0.00,,BKN070,0.00,VWS V14.01,2013-03-02 08:40:00,
2013-03-02 03:41:00,33.1,29.4,29.52,South,188,0.0,0.0,86,0.00,,OVC026,0.00,VWS V14.01,2013-03-02 08:41:00,
2013-03-02 03:42:00,33.1,29.4,29.52,South,188,0.0,0.0,86,0.00,,OVC026,0.00,VWS V14.01,2013-03-02 08:42:00,
2013-03-02 03:43:00,33.1,29.4,29.52,South,188,0.0,0.0,86,0.00,,OVC026,0.00,VWS V14.01,2013-03-02 08:43:00,
2013-03-02 03:44:00,33.1,29.4,29.52,South,188,0.0,0.0,86,0.00,,OVC026,0.00,VWS V14.01,2013-03-02 08:44:00,
2013-03-02 03:45:00,33.1,29.4,29.52,South,188,0.0,0.0,86,0.00,,BKN070,0.00,VWS V14.01,2013-03-02 08:45:00,
2013-03-02 03:46:00,33.1,29.4,29.51,South,188,0.0,0.0,86,0.00,,OVC026,0.00,VWS V14.01,2013-03-02 08:46:00,
2013-03-02 03:47:00,33.0,29.3,29.51,South,188,0.0,1.0,86,0.00,,OVC026,0.00,VWS V14.01,2013-03-02 08:47:00,
2013-03-02 03:48:00,33.0,29.3,29.52,SSE,158,0.0,1.0,86,0.00,,OVC026,0.00,VWS V14.01,2013-03-02 08:48:00,
2013-03-02 03:49:00,33.0,29.0,29.52,ESE,103,0.0,0.0,85,0.00,,OVC026,0.00,VWS V14.01,2013-03-02 08:49:00,
2013-03-02 03:50:00,33.0,29.3,29.52,SSE,158,0.0,1.0,86,0.00,,BKN070,0.00,VWS V14.01,2013-03-02 08:50:00,
2013-03-02 03:51:00,33.0,29.0,29.52,ESE,103,0.0,1.0,85,0.00,,OVC026,0.00,VWS V14.01,2013-03-02 08:51:00,
2013-03-02 03:52:00,33.0,29.0,29.52,ESE,103,0.0,0.0,85,0.00,,OVC026,0.00,VWS V14.01,2013-03-02 08:52:00,
2013-03-02 03:53:00,33.0,29.0,29.52,ESE,103,0.0,0.0,85,0.00,,OVC026,0.00,VWS V14.01,2013-03-02 08:53:00,
2013-03-02 03:54:00,33.0,29.0,29.52,ESE,105,0.0,0.0,85,0.00,,OVC026,0.00,VWS V14.01,2013-03-02 08:54:00,
2013-03-02 03:55:00,33.0,29.0,29.52,ESE,103,0.0,0.0,85,0.00,,BKN070,0.00,VWS V14.01,2013-03-02 08:55:00,
2013-03-02 03:56:00,33.0,29.0,29.52,NNE,19,0.0,1.0,85,0.00,,OVC026,0.00,VWS V14.01,2013-03-02 08:56:00,
2013-03-02 03:57:00,33.0,29.0,29.52,NNE,19,0.0,0.0,85,0.00,,OVC026,0.00,VWS V14.01,2013-03-02 08:57:00,
2013-03-02 03:58:00,32.9,28.9,29.52,South,180,0.0,1.0,85,0.00,,OVC026,0.00,VWS V14.01,2013-03-02 08:58:00,
2013-03-02 03:59:00,32.9,28.9,29.52,South,180,0.0,0.0,85,0.00,,OVC026,0.00,VWS V14.01,2013-03-02 08:59:00,
2013-03-02 04:00:00,33.0,29.0,29.52,South,180,0.0,1.0,85,0.00,,FEW070,0.00,VWS V14.01,2013-03-02 09:00:00,
2013-03-02 04:01:00,32.9,28.9,29.52,SW,223,0.0,0.0,85,0.00,,OVC026,0.00,VWS V14.01,2013-03-02 09:01:00,
2013-03-02 04:02:00,32.9,28.9,29.52,SW,223,0.0,0.0,85,0.00,,OVC026,0.00,VWS V14.01,2013-03-02 09:02:00,
2013-03-02 04:03:00,32.9,28.9,29.52,SW,223,0.0,0.0,85,0.00,,OVC026,0.00,VWS V14.01,2013-03-02 09:03:00,
2013-03-02 04:04:00,32.9,28.9,29.52,SW,223,0.0,0.0,85,0.00,,OVC026,0.00,VWS V14.01,2013-03-02 09:04:00,
2013-03-02 04:05:00,32.9,28.9,29.52,SW,223,0.0,0.0,85,0.00,,FEW070,0.00,VWS V14.01,2013-03-02 09:05:00,
2013-03-02 04:06:00,32.8,28.8,29.52,SW,223,0.0,0.0,85,0.00,,OVC026,0.00,VWS V14.01,2013-03-02 09:06:00,
2013-03-02 04:07:00,32.8,28.8,29.52,SW,223,0.0,0.0,85,0.00,,OVC026,0.00,VWS V14.01,2013-03-02 09:07:00,
2013-03-02 04:08:00,32.8,28.8,29.52,SW,223,0.0,1.0,85,0.00,,OVC026,0.00,VWS V14.01,2013-03-02 09:08:00,
2013-03-02 04:09:00,32.8,28.8,29.52,SW,223,0.0,1.0,85,0.00,,OVC026,0.00,VWS V14.01,2013-03-02 09:09:00,
2013-03-02 04:10:00,32.8,28.8,29.52,SW,223,0.0,1.0,85,0.00,,FEW070,0.00,VWS V14.01,2013-03-02 09:10:00,
2013-03-02 04:11:00,32.7,28.7,29.52,South,175,0.0,2.0,85,0.00,,OVC026,0.00,VWS V14.01,2013-03-02 09:11:00,
2013-03-02 04:12:00,32.7,28.7,29.52,South,175,0.0,0.0,85,0.00,,OVC026,0.00,VWS V14.01,2013-03-02 09:12:00,
2013-03-02 04:13:00,32.6,28.6,29.52,South,175,0.0,0.0,85,0.00,,OVC026,0.00,VWS V14.01,2013-03-02 09:13:00,
2013-03-02 04:14:00,32.6,28.6,29.52,South,175,0.0,0.0,85,0.00,,OVC026,0.00,VWS V14.01,2013-03-02 09:14:00,
2013-03-02 04:15:00,32.6,28.6,29.52,South,175,0.0,0.0,85,0.00,,FEW070,0.00,VWS V14.01,2013-03-02 09:15:00,
2013-03-02 04:16:00,32.5,28.5,29.52,South,175,0.0,0.0,85,0.00,,OVC026,0.00,VWS V14.01,2013-03-02 09:16:00,
2013-03-02 04:17:00,32.5,28.5,29.52,South,175,0.0,0.0,85,0.00,,OVC026,0.00,VWS V14.01,2013-03-02 09:17:00,
2013-03-02 04:18:00,32.5,28.5,29.52,South,175,0.0,0.0,85,0.00,,OVC026,0.00,VWS V14.01,2013-03-02 09:18:00,
2013-03-02 04:19:00,32.5,28.5,29.52,South,175,0.0,0.0,85,0.00,,OVC026,0.00,VWS V14.01,2013-03-02 09:19:00,
2013-03-02 04:20:00,32.5,28.5,29.52,South,175,0.0,0.0,85,0.00,,FEW070,0.00,VWS V14.01,2013-03-02 09:20:00,
2013-03-02 04:21:00,32.4,28.4,29.52,South,175,0.0,0.0,85,0.00,,OVC026,0.00,VWS V14.01,2013-03-02 09:21:00,
2013-03-02 04:22:00,32.4,28.4,29.52,South,175,0.0,0.0,85,0.00,,OVC026,0.00,VWS V14.01,2013-03-02 09:22:00,
2013-03-02 04:23:00,32.4,28.4,29.52,South,175,0.0,0.0,85,0.00,,OVC026,0.00,VWS V14.01,2013-03-02 09:23:00,
2013-03-02 04:24:00,32.4,28.7,29.52,South,175,0.0,0.0,86,0.00,,OVC026,0.00,VWS V14.01,2013-03-02 09:24:00,
2013-03-02 04:25:00,32.4,28.4,29.52,South,175,0.0,0.0,85,0.00,,FEW070,0.00,VWS V14.01,2013-03-02 09:25:00,
2013-03-02 04:26:00,32.3,28.6,29.52,South,175,1.0,1.0,86,0.00,,OVC026,0.00,VWS V14.01,2013-03-02 09:26:00,
2013-03-02 04:27:00,32.3,28.3,29.52,ESE,121,0.0,1.0,85,0.00,,OVC026,0.00,VWS V14.01,2013-03-02 09:27:00,
2013-03-02 04:28:00,32.3,28.3,29.52,ESE,121,0.0,0.0,85,0.00,,OVC026,0.00,VWS V14.01,2013-03-02 09:28:00,
2013-03-02 04:29:00,32.3,28.3,29.52,ESE,121,0.0,0.0,85,0.00,,OVC026,0.00,VWS V14.01,2013-03-02 09:29:00,
2013-03-02 04:30:00,32.3,28.3,29.52,ESE,121,0.0,0.0,85,0.00,,BKN031,0.00,VWS V14.01,2013-03-02 09:30:00,
2013-03-02 04:31:00,32.3,28.3,29.52,ESE,121,0.0,0.0,85,0.00,,OVC026,0.00,VWS V14.01,2013-03-02 09:31:00,
2013-03-02 04:32:00,32.3,28.3,29.52,ESE,121,0.0,0.0,85,0.00,,OVC026,0.00,VWS V14.01,2013-03-02 09:32:00,
2013-03-02 04:33:00,32.3,28.3,29.52,ESE,121,0.0,0.0,85,0.00,,OVC026,0.00,VWS V14.01,2013-03-02 09:33:00,
2013-03-02 04:34:00,32.3,28.3,29.52,ESE,121,0.0,0.0,85,0.00,,OVC026,0.00,VWS V14.01,2013-03-02 09:34:00,
2013-03-02 04:35:00,32.3,28.3,29.52,ESE,121,0.0,0.0,85,0.00,,BKN031,0.00,VWS V14.01,2013-03-02 09:35:00,
2013-03-02 04:36:00,32.3,28.6,29.52,ESE,121,0.0,0.0,86,0.00,,OVC026,0.00,VWS V14.01,2013-03-02 09:36:00,
2013-03-02 04:37:00,32.3,28.6,29.52,ESE,121,0.0,0.0,86,0.00,,OVC026,0.00,VWS V14.01,2013-03-02 09:37:00,
2013-03-02 04:38:00,32.3,28.6,29.53,SE,126,0.0,0.0,86,0.00,,OVC026,0.00,VWS V14.01,2013-03-02 09:38:00,
2013-03-02 04:39:00,32.3,28.6,29.53,SSE,161,0.0,3.0,86,0.00,,OVC026,0.00,VWS V14.01,2013-03-02 09:39:00,
2013-03-02 04:40:00,32.3,28.6,29.53,ESE,121,0.0,0.0,86,0.00,,BKN031,0.00,VWS V14.01,2013-03-02 09:40:00,
2013-03-02 04:41:00,32.3,28.6,29.52,SSE,161,0.0,0.0,86,0.00,,OVC026,0.00,VWS V14.01,2013-03-02 09:41:00,
2013-03-02 04:42:00,32.3,28.6,29.53,SSE,161,0.0,0.0,86,0.00,,OVC026,0.00,VWS V14.01,2013-03-02 09:42:00,
2013-03-02 04:43:00,32.3,28.6,29.53,SSE,161,0.0,0.0,86,0.00,,OVC026,0.00,VWS V14.01,2013-03-02 09:43:00,
2013-03-02 04:44:00,32.3,28.6,29.53,SSE,161,0.0,0.0,86,0.00,,OVC026,0.00,VWS V14.01,2013-03-02 09:44:00,
2013-03-02 04:45:00,32.3,28.6,29.53,SSE,161,0.0,0.0,86,0.00,,BKN031,0.00,VWS V14.01,2013-03-02 09:45:00,
2013-03-02 04:46:00,32.3,28.6,29.53,SSE,161,0.0,1.0,86,0.00,,OVC026,0.00,VWS V14.01,2013-03-02 09:46:00,
2013-03-02 04:47:00,32.3,28.6,29.53,SSE,161,0.0,0.0,86,0.00,,OVC026,0.00,VWS V14.01,2013-03-02 09:47:00,
2013-03-02 04:48:00,32.3,28.6,29.53,SSE,161,0.0,0.0,86,0.00,,OVC026,0.00,VWS V14.01,2013-03-02 09:48:00,
2013-03-02 04:49:00,32.3,28.6,29.53,SSE,161,0.0,0.0,86,0.00,,OVC026,0.00,VWS V14.01,2013-03-02 09:49:00,
2013-03-02 04:50:00,32.3,28.6,29.53,SSE,161,0.0,0.0,86,0.00,,BKN031,0.00,VWS V14.01,2013-03-02 09:50:00,
2013-03-02 04:51:00,32.3,28.6,29.53,SE,146,0.0,3.0,86,0.00,,OVC026,0.00,VWS V14.01,2013-03-02 09:51:00,
2013-03-02 04:52:00,32.3,28.6,29.53,SE,146,0.0,0.0,86,0.00,,OVC026,0.00,VWS V14.01,2013-03-02 09:52:00,
2013-03-02 04:53:00,32.3,28.6,29.53,SE,142,0.0,1.0,86,0.00,,OVC026,0.00,VWS V14.01,2013-03-02 09:53:00,
2013-03-02 04:54:00,32.3,28.6,29.53,SE,142,0.0,0.0,86,0.00,,OVC026,0.00,VWS V14.01,2013-03-02 09:54:00,
2013-03-02 04:55:00,32.3,28.6,29.53,SE,142,0.0,1.0,86,0.00,,BKN031,0.00,VWS V14.01,2013-03-02 09:55:00,
2013-03-02 04:56:00,32.3,28.6,29.53,SE,142,0.0,0.0,86,0.00,,OVC026,0.00,VWS V14.01,2013-03-02 09:56:00,
2013-03-02 04:57:00,32.3,28.6,29.53,SE,142,0.0,0.0,86,0.00,,OVC026,0.00,VWS V14.01,2013-03-02 09:57:00,
2013-03-02 04:58:00,32.3,28.6,29.53,SE,142,0.0,0.0,86,0.00,,OVC026,0.00,VWS V14.01,2013-03-02 09:58:00,
2013-03-02 04:59:00,32.3,28.6,29.53,SE,143,0.0,0.0,86,0.00,,OVC026,0.00,VWS V14.01,2013-03-02 09:59:00,
2013-03-02 05:00:00,32.3,28.6,29.53,SE,142,0.0,0.0,86,0.00,,OVC024,0.00,VWS V14.01,2013-03-02 10:00:00,
2013-03-02 05:01:00,32.3,28.6,29.53,SE,143,0.0,0.0,86,0.00,,OVC026,0.00,VWS V14.01,2013-03-02 10:01:00,
2013-03-02 05:02:00,32.3,28.6,29.53,SE,143,0.0,0.0,86,0.00,,OVC026,0.00,VWS V14.01,2013-03-02 10:02:00,
2013-03-02 05:03:00,32.3,28.6,29.53,SE,143,0.0,0.0,86,0.00,,OVC026,0.00,VWS V14.01,2013-03-02 10:03:00,
2013-03-02 05:04:00,32.3,28.6,29.53,SE,143,0.0,0.0,86,0.00,,OVC026,0.00,VWS V14.01,2013-03-02 10:04:00,
2013-03-02 05:05:00,32.3,28.6,29.53,SE,143,0.0,0.0,86,0.00,,OVC024,0.00,VWS V14.01,2013-03-02 10:05:00,
2013-03-02 05:06:00,32.3,28.6,29.53,SE,143,0.0,0.0,86,0.00,,OVC026,0.00,VWS V14.01,2013-03-02 10:06:00,
2013-03-02 05:07:00,32.3,28.6,29.52,SE,143,0.0,1.0,86,0.00,,OVC026,0.00,VWS V14.01,2013-03-02 10:07:00,
2013-03-02 05:08:00,32.3,28.6,29.53,SE,143,0.0,0.0,86,0.00,,OVC026,0.00,VWS V14.01,2013-03-02 10:08:00,
2013-03-02 05:09:00,32.3,28.6,29.53,SE,143,0.0,0.0,86,0.00,,OVC026,0.00,VWS V14.01,2013-03-02 10:09:00,
2013-03-02 05:10:00,32.3,28.6,29.53,SE,143,0.0,0.0,86,0.00,,OVC024,0.00,VWS V14.01,2013-03-02 10:10:00,
2013-03-02 05:11:00,32.3,28.9,29.53,SE,143,0.0,0.0,87,0.00,,OVC026,0.00,VWS V14.01,2013-03-02 10:11:00,
2013-03-02 05:12:00,32.3,28.9,29.53,SE,143,0.0,0.0,87,0.00,,OVC026,0.00,VWS V14.01,2013-03-02 10:12:00,
2013-03-02 05:13:00,32.3,28.6,29.53,SE,143,0.0,0.0,86,0.00,,OVC026,0.00,VWS V14.01,2013-03-02 10:13:00,
2013-03-02 05:14:00,32.4,29.0,29.53,SSE,163,0.0,2.0,87,0.00,,OVC026,0.00,VWS V14.01,2013-03-02 10:14:00,
2013-03-02 05:15:00,32.3,28.6,29.53,SE,143,0.0,0.0,86,0.00,,OVC024,0.00,VWS V14.01,2013-03-02 10:15:00,
2013-03-02 05:16:00,32.3,28.9,29.53,SSE,161,1.0,2.0,87,0.00,,OVC026,0.00,VWS V14.01,2013-03-02 10:16:00,
2013-03-02 05:17:00,32.3,28.9,29.53,South,169,1.0,2.0,87,0.00,,OVC026,0.00,VWS V14.01,2013-03-02 10:17:00,
2013-03-02 05:18:00,32.3,28.9,29.53,South,169,0.0,1.0,87,0.00,,OVC026,0.00,VWS V14.01,2013-03-02 10:18:00,
2013-03-02 05:19:00,32.3,28.9,29.53,South,169,0.0,2.0,87,0.00,,OVC026,0.00,VWS V14.01,2013-03-02 10:19:00,
2013-03-02 05:20:00,32.4,29.0,29.53,South,169,0.0,1.0,87,0.00,,OVC024,0.00,VWS V14.01,2013-03-02 10:20:00,
2013-03-02 05:21:00,32.4,29.0,29.53,South,169,0.0,0.0,87,0.00,,OVC026,0.00,VWS V14.01,2013-03-02 10:21:00,
2013-03-02 05:22:00,32.4,29.0,29.53,South,169,0.0,0.0,87,0.00,,OVC026,0.00,VWS V14.01,2013-03-02 10:22:00,
2013-03-02 05:23:00,32.4,29.0,29.53,South,169,0.0,0.0,87,0.00,,OVC026,0.00,VWS V14.01,2013-03-02 10:23:00,
2013-03-02 05:24:00,32.3,28.9,29.53,South,169,0.0,0.0,87,0.00,,OVC026,0.00,VWS V14.01,2013-03-02 10:24:00,
2013-03-02 05:25:00,32.3,28.9,29.53,South,169,0.0,0.0,87,0.00,,OVC024,0.00,VWS V14.01,2013-03-02 10:25:00,
2013-03-02 05:26:00,32.3,28.9,29.52,South,169,0.0,0.0,87,0.00,,OVC026,0.00,VWS V14.01,2013-03-02 10:26:00,
2013-03-02 05:27:00,32.3,28.9,29.52,South,169,0.0,0.0,87,0.00,,OVC026,0.00,VWS V14.01,2013-03-02 10:27:00,
2013-03-02 05:28:00,32.3,28.9,29.52,South,169,0.0,0.0,87,0.00,,OVC026,0.00,VWS V14.01,2013-03-02 10:28:00,
2013-03-02 05:29:00,32.3,28.9,29.52,South,169,0.0,0.0,87,0.00,,OVC026,0.00,VWS V14.01,2013-03-02 10:29:00,
2013-03-02 05:30:00,32.3,28.9,29.52,South,169,0.0,0.0,87,0.00,,OVC024,0.00,VWS V14.01,2013-03-02 10:30:00,
2013-03-02 05:31:00,32.3,28.6,29.52,South,169,0.0,1.0,86,0.00,,OVC026,0.00,VWS V14.01,2013-03-02 10:31:00,
2013-03-02 05:32:00,32.3,28.6,29.53,NNE,14,0.0,1.0,86,0.00,,OVC026,0.00,VWS V14.01,2013-03-02 10:32:00,
2013-03-02 05:33:00,32.3,28.6,29.52,NNE,14,0.0,0.0,86,0.00,,OVC026,0.00,VWS V14.01,2013-03-02 10:33:00,
2013-03-02 05:34:00,32.3,28.6,29.52,NNE,14,0.0,0.0,86,0.00,,OVC026,0.00,VWS V14.01,2013-03-02 10:34:00,
2013-03-02 05:35:00,32.3,28.6,29.52,NNE,14,0.0,0.0,86,0.00,,OVC024,0.00,VWS V14.01,2013-03-02 10:35:00,
2013-03-02 05:36:00,32.3,28.6,29.52,NNE,14,0.0,0.0,86,0.00,,OVC026,0.00,VWS V14.01,2013-03-02 10:36:00,
2013-03-02 05:37:00,32.3,28.6,29.52,NNE,14,0.0,0.0,86,0.00,,OVC026,0.00,VWS V14.01,2013-03-02 10:37:00,
2013-03-02 05:38:00,32.3,28.6,29.52,ENE,67,0.0,0.0,86,0.00,,OVC026,0.00,VWS V14.01,2013-03-02 10:38:00,
2013-03-02 05:39:00,32.3,28.6,29.52,SSE,151,0.0,1.0,86,0.00,,OVC026,0.00,VWS V14.01,2013-03-02 10:39:00,
2013-03-02 05:40:00,32.3,28.6,29.52,ENE,78,0.0,0.0,86,0.00,,OVC024,0.00,VWS V14.01,2013-03-02 10:40:00,
2013-03-02 05:41:00,32.3,28.6,29.52,SSE,151,0.0,0.0,86,0.00,,OVC026,0.00,VWS V14.01,2013-03-02 10:41:00,
2013-03-02 05:42:00,32.3,28.6,29.52,SSE,151,0.0,0.0,86,0.00,,OVC026,0.00,VWS V14.01,2013-03-02 10:42:00,
2013-03-02 05:43:00,32.3,28.6,29.52,SSE,151,0.0,1.0,86,0.00,,OVC026,0.00,VWS V14.01,2013-03-02 10:43:00,
2013-03-02 05:44:00,32.3,28.6,29.52,SSE,151,0.0,0.0,86,0.00,,OVC026,0.00,VWS V14.01,2013-03-02 10:44:00,
2013-03-02 05:45:00,32.3,28.6,29.52,SSE,151,0.0,0.0,86,0.00,,OVC024,0.00,VWS V14.01,2013-03-02 10:45:00,
2013-03-02 05:46:00,32.3,28.6,29.52,SSE,151,0.0,0.0,86,0.00,,OVC026,0.00,VWS V14.01,2013-03-02 10:46:00,
2013-03-02 05:47:00,32.3,28.6,29.52,SSE,151,0.0,0.0,86,0.00,,OVC026,0.00,VWS V14.01,2013-03-02 10:47:00,
2013-03-02 05:48:00,32.3,28.6,29.52,SSE,151,0.0,0.0,86,0.00,,OVC026,0.00,VWS V14.01,2013-03-02 10:48:00,
2013-03-02 05:49:00,32.3,28.6,29.52,SSE,151,0.0,2.0,86,0.00,,OVC026,0.00,VWS V14.01,2013-03-02 10:49:00,
2013-03-02 05:50:00,32.3,28.6,29.52,SSE,151,0.0,0.0,86,0.00,,OVC024,0.00,VWS V14.01,2013-03-02 10:50:00,
2013-03-02 05:51:00,32.3,28.6,29.52,SSE,151,0.0,0.0,86,0.00,,OVC026,0.00,VWS V14.01,2013-03-02 10:51:00,
2013-03-02 05:52:00,32.3,28.6,29.52,SSE,151,0.0,0.0,86,0.00,,OVC026,0.00,VWS V14.01,2013-03-02 10:52:00,
2013-03-02 05:53:00,32.3,28.6,29.52,SSE,151,0.0,0.0,86,0.00,,OVC026,0.00,VWS V14.01,2013-03-02 10:53:00,
2013-03-02 05:54:00,32.3,28.6,29.52,SSE,151,0.0,0.0,86,0.00,,OVC026,0.00,VWS V14.01,2013-03-02 10:54:00,
2013-03-02 05:55:00,32.3,28.6,29.52,SSE,151,0.0,0.0,86,0.00,,OVC024,0.00,VWS V14.01,2013-03-02 10:55:00,
2013-03-02 05:56:00,32.3,28.6,29.52,SSE,151,0.0,0.0,86,0.00,,OVC026,0.00,VWS V14.01,2013-03-02 10:56:00,
2013-03-02 05:57:00,32.3,28.6,29.52,SSE,151,0.0,0.0,86,0.00,,OVC026,0.00,VWS V14.01,2013-03-02 10:57:00,
2013-03-02 05:58:00,32.3,28.6,29.52,SSE,151,0.0,0.0,86,0.00,,OVC026,0.00,VWS V14.01,2013-03-02 10:58:00,
2013-03-02 05:59:00,32.3,28.6,29.52,SSE,151,0.0,0.0,86,0.00,,OVC026,0.00,VWS V14.01,2013-03-02 10:59:00,
2013-03-02 06:00:00,32.3,28.6,29.52,SSE,151,0.0,0.0,86,0.00,,OVC024,0.00,VWS V14.01,2013-03-02 11:00:00,
2013-03-02 06:01:00,32.3,28.6,29.52,SSE,151,0.0,0.0,86,0.00,,OVC026,0.00,VWS V14.01,2013-03-02 11:01:00,
2013-03-02 06:02:00,32.2,28.5,29.52,SSE,151,0.0,0.0,86,0.00,,OVC026,0.00,VWS V14.01,2013-03-02 11:02:00,
2013-03-02 06:03:00,32.2,28.5,29.52,SSE,151,0.0,0.0,86,0.00,,OVC026,0.00,VWS V14.01,2013-03-02 11:03:00,
2013-03-02 06:04:00,32.2,28.5,29.52,SSE,151,0.0,0.0,86,0.00,,OVC026,0.00,VWS V14.01,2013-03-02 11:04:00,
2013-03-02 06:05:00,32.2,28.5,29.52,SSE,151,0.0,0.0,86,0.00,,OVC024,0.00,VWS V14.01,2013-03-02 11:05:00,
2013-03-02 06:06:00,32.2,28.5,29.52,SSE,151,0.0,0.0,86,0.00,,OVC026,0.00,VWS V14.01,2013-03-02 11:06:00,
2013-03-02 06:07:00,32.1,28.4,29.52,SSE,151,0.0,0.0,86,0.00,,OVC026,0.00,VWS V14.01,2013-03-02 11:07:00,
2013-03-02 06:08:00,32.1,28.4,29.52,SSE,151,0.0,0.0,86,0.00,,OVC026,0.00,VWS V14.01,2013-03-02 11:08:00,
2013-03-02 06:09:00,32.1,28.4,29.52,SSE,151,0.0,0.0,86,0.00,,OVC026,0.00,VWS V14.01,2013-03-02 11:09:00,
2013-03-02 06:10:00,32.1,28.4,29.52,SSE,151,0.0,0.0,86,0.00,,OVC024,0.00,VWS V14.01,2013-03-02 11:10:00,
2013-03-02 06:11:00,32.1,28.1,29.52,SSE,151,0.0,0.0,85,0.00,,OVC026,0.00,VWS V14.01,2013-03-02 11:11:00,
2013-03-02 06:12:00,32.1,28.1,29.52,SSE,151,0.0,0.0,85,0.00,,OVC026,0.00,VWS V14.01,2013-03-02 11:12:00,
2013-03-02 06:13:00,32.0,28.3,29.52,SSE,151,0.0,0.0,86,0.00,,OVC026,0.00,VWS V14.01,2013-03-02 11:13:00,
2013-03-02 06:14:00,32.0,28.3,29.52,SSE,151,0.0,0.0,86,0.00,,OVC026,0.00,VWS V14.01,2013-03-02 11:14:00,
2013-03-02 06:15:00,32.0,28.3,29.52,SSE,151,0.0,0.0,86,0.00,,OVC024,0.00,VWS V14.01,2013-03-02 11:15:00,
2013-03-02 06:16:00,32.0,28.3,29.52,SSE,151,0.0,0.0,86,0.00,,OVC026,0.00,VWS V14.01,2013-03-02 11:16:00,
2013-03-02 06:17:00,31.9,27.9,29.52,SSE,151,0.0,0.0,85,0.00,,OVC026,0.00,VWS V14.01,2013-03-02 11:17:00,
2013-03-02 06:18:00,31.9,28.2,29.52,SSE,151,0.0,0.0,86,0.00,,OVC026,0.00,VWS V14.01,2013-03-02 11:18:00,
2013-03-02 06:19:00,31.9,28.2,29.52,SSE,151,0.0,0.0,86,0.00,,OVC026,0.00,VWS V14.01,2013-03-02 11:19:00,
2013-03-02 06:20:00,31.9,28.2,29.52,SSE,151,0.0,0.0,86,0.00,,OVC024,0.00,VWS V14.01,2013-03-02 11:20:00,
2013-03-02 06:21:00,31.8,27.8,29.52,SSE,151,0.0,0.0,85,0.00,,OVC026,0.00,VWS V14.01,2013-03-02 11:21:00,
2013-03-02 06:22:00,31.8,28.1,29.52,SSE,151,0.0,0.0,86,0.00,,OVC026,0.00,VWS V14.01,2013-03-02 11:22:00,
2013-03-02 06:23:00,31.8,28.1,29.52,SSE,151,0.0,0.0,86,0.00,,OVC026,0.00,VWS V14.01,2013-03-02 11:23:00,
2013-03-02 06:24:00,31.7,28.0,29.52,SSE,151,0.0,0.0,86,0.00,,OVC026,0.00,VWS V14.01,2013-03-02 11:24:00,
2013-03-02 06:25:00,31.8,28.1,29.52,SSE,151,0.0,0.0,86,0.00,,OVC024,0.00,VWS V14.01,2013-03-02 11:25:00,
2013-03-02 06:26:00,31.7,28.0,29.52,SSE,151,0.0,0.0,86,0.00,,OVC026,0.00,VWS V14.01,2013-03-02 11:26:00,
2013-03-02 06:27:00,31.6,27.6,29.52,SSE,151,0.0,0.0,85,0.00,,OVC026,0.00,VWS V14.01,2013-03-02 11:27:00,
2013-03-02 06:28:00,31.6,27.6,29.52,SSE,151,0.0,0.0,85,0.00,,OVC026,0.00,VWS V14.01,2013-03-02 11:28:00,
2013-03-02 06:29:00,31.6,27.6,29.52,SSE,151,0.0,0.0,85,0.00,,OVC026,0.00,VWS V14.01,2013-03-02 11:29:00,
2013-03-02 06:30:00,31.6,27.6,29.52,SSE,151,0.0,0.0,85,0.00,,OVC024,0.00,VWS V14.01,2013-03-02 11:30:00,
2013-03-02 06:31:00,31.6,27.6,29.52,SSE,151,0.0,0.0,85,0.00,,OVC026,0.00,VWS V14.01,2013-03-02 11:31:00,
2013-03-02 06:32:00,31.5,27.5,29.52,SSE,151,0.0,0.0,85,0.00,,OVC026,0.00,VWS V14.01,2013-03-02 11:32:00,
2013-03-02 06:33:00,31.5,27.8,29.52,SSE,151,0.0,0.0,86,0.00,,OVC026,0.00,VWS V14.01,2013-03-02 11:33:00,
2013-03-02 06:34:00,31.5,27.8,29.52,SSE,151,0.0,0.0,86,0.00,,OVC026,0.00,VWS V14.01,2013-03-02 11:34:00,
2013-03-02 06:35:00,31.5,27.8,29.52,SSE,151,0.0,0.0,86,0.00,,OVC024,0.00,VWS V14.01,2013-03-02 11:35:00,
2013-03-02 06:36:00,31.4,27.7,29.52,SSE,151,0.0,0.0,86,0.00,,OVC026,0.00,VWS V14.01,2013-03-02 11:36:00,
2013-03-02 06:37:00,31.4,27.7,29.52,SSE,151,0.0,0.0,86,0.00,,OVC026,0.00,VWS V14.01,2013-03-02 11:37:00,
2013-03-02 06:38:00,31.4,27.7,29.52,SSE,151,0.0,0.0,86,0.00,,OVC026,0.00,VWS V14.01,2013-03-02 11:38:00,
2013-03-02 06:39:00,31.4,27.4,29.52,SSE,151,0.0,0.0,85,0.00,,OVC026,0.00,VWS V14.01,2013-03-02 11:39:00,
2013-03-02 06:40:00,31.4,27.7,29.52,SSE,151,0.0,0.0,86,0.00,,OVC024,0.00,VWS V14.01,2013-03-02 11:40:00,
2013-03-02 06:41:00,31.3,27.3,29.52,SSE,151,0.0,0.0,85,0.00,,OVC026,0.00,VWS V14.01,2013-03-02 11:41:00,
2013-03-02 06:42:00,31.2,27.2,29.52,SSE,151,0.0,0.0,85,0.00,,OVC026,0.00,VWS V14.01,2013-03-02 11:42:00,
2013-03-02 06:43:00,31.2,27.5,29.53,SSE,151,0.0,0.0,86,0.00,,OVC026,0.00,VWS V14.01,2013-03-02 11:43:00,
2013-03-02 06:44:00,31.2,27.2,29.53,SSE,151,0.0,0.0,85,0.00,,OVC026,0.00,VWS V14.01,2013-03-02 11:44:00,
2013-03-02 06:45:00,31.2,27.5,29.52,SSE,151,0.0,0.0,86,0.00,,OVC024,0.00,VWS V14.01,2013-03-02 11:45:00,
2013-03-02 06:46:00,31.1,27.4,29.52,SSE,151,0.0,0.0,86,0.00,,OVC026,0.00,VWS V14.01,2013-03-02 11:46:00,
2013-03-02 06:47:00,31.1,27.4,29.52,SSE,151,0.0,0.0,86,0.00,,OVC026,0.00,VWS V14.01,2013-03-02 11:47:00,
2013-03-02 06:48:00,31.0,27.3,29.52,SSE,151,0.0,0.0,86,0.00,,OVC026,0.00,VWS V14.01,2013-03-02 11:48:00,
2013-03-02 06:49:00,31.0,27.3,29.52,SSE,151,0.0,0.0,86,0.00,,OVC026,0.00,VWS V14.01,2013-03-02 11:49:00,
2013-03-02 06:50:00,31.0,27.3,29.53,SSE,151,0.0,0.0,86,0.00,,OVC024,0.00,VWS V14.01,2013-03-02 11:50:00,
2013-03-02 06:51:00,30.9,27.2,29.53,SSE,151,0.0,0.0,86,0.00,,OVC026,0.00,VWS V14.01,2013-03-02 11:51:00,
2013-03-02 06:52:00,30.9,27.2,29.52,SSE,151,0.0,0.0,86,0.00,,OVC026,0.00,VWS V14.01,2013-03-02 11:52:00,
2013-03-02 06:53:00,30.8,27.1,29.52,SSE,151,0.0,0.0,86,0.00,,OVC026,0.00,VWS V14.01,2013-03-02 11:53:00,
2013-03-02 06:54:00,30.8,27.1,29.52,SSE,151,0.0,0.0,86,0.00,,OVC026,0.00,VWS V14.01,2013-03-02 11:54:00,
2013-03-02 06:55:00,30.8,27.1,29.52,SSE,151,0.0,0.0,86,0.00,,OVC024,0.00,VWS V14.01,2013-03-02 11:55:00,
2013-03-02 06:56:00,30.7,27.0,29.52,SSE,151,0.0,0.0,86,0.00,,OVC026,0.00,VWS V14.01,2013-03-02 11:56:00,
2013-03-02 06:57:00,30.7,27.0,29.52,SSE,151,0.0,0.0,86,0.00,,OVC026,0.00,VWS V14.01,2013-03-02 11:57:00,
2013-03-02 06:58:00,30.7,27.0,29.52,SSE,151,0.0,0.0,86,0.00,,OVC026,0.00,VWS V14.01,2013-03-02 11:58:00,
2013-03-02 06:59:00,30.6,26.9,29.52,SSE,151,0.0,0.0,86,0.00,,OVC026,0.00,VWS V14.01,2013-03-02 11:59:00,
2013-03-02 07:00:00,30.7,27.0,29.52,SSE,151,0.0,0.0,86,0.00,,OVC025,0.00,VWS V14.01,2013-03-02 12:00:00,
2013-03-02 07:01:00,30.6,26.9,29.52,SSE,151,0.0,0.0,86,0.00,,OVC026,0.00,VWS V14.01,2013-03-02 12:01:00,
2013-03-02 07:02:00,30.5,26.8,29.52,SSE,151,0.0,0.0,86,0.00,,OVC026,0.00,VWS V14.01,2013-03-02 12:02:00,
2013-03-02 07:03:00,30.5,26.8,29.52,SSE,151,0.0,0.0,86,0.00,,OVC026,0.00,VWS V14.01,2013-03-02 12:03:00,
2013-03-02 07:04:00,30.5,26.8,29.52,SSE,151,0.0,0.0,86,0.00,,OVC026,0.00,VWS V14.01,2013-03-02 12:04:00,
2013-03-02 07:05:00,30.5,26.8,29.52,SSE,151,0.0,0.0,86,0.00,,OVC025,0.00,VWS V14.01,2013-03-02 12:05:00,
2013-03-02 07:06:00,30.4,26.7,29.52,SSE,151,0.0,0.0,86,0.00,,OVC026,0.00,VWS V14.01,2013-03-02 12:06:00,
2013-03-02 07:07:00,30.4,26.7,29.52,SSE,151,0.0,0.0,86,0.00,,OVC026,0.00,VWS V14.01,2013-03-02 12:07:00,
2013-03-02 07:08:00,30.3,26.9,29.52,SSE,151,0.0,0.0,87,0.00,,OVC026,0.00,VWS V14.01,2013-03-02 12:08:00,
2013-03-02 07:09:00,30.3,26.9,29.52,SSE,151,0.0,0.0,87,0.00,,OVC026,0.00,VWS V14.01,2013-03-02 12:09:00,
2013-03-02 07:10:00,30.3,26.9,29.52,SSE,151,0.0,0.0,87,0.00,,OVC025,0.00,VWS V14.01,2013-03-02 12:10:00,
2013-03-02 07:11:00,30.3,26.9,29.52,SSE,151,0.0,0.0,87,0.00,,OVC026,0.00,VWS V14.01,2013-03-02 12:11:00,
2013-03-02 07:12:00,30.2,26.8,29.52,SSE,151,0.0,0.0,87,0.00,,OVC026,0.00,VWS V14.01,2013-03-02 12:12:00,
2013-03-02 07:13:00,30.2,26.8,29.53,SSE,151,0.0,0.0,87,0.00,,OVC026,0.00,VWS V14.01,2013-03-02 12:13:00,
2013-03-02 07:14:00,30.2,26.8,29.53,SSE,151,0.0,0.0,87,0.00,,OVC026,0.00,VWS V14.01,2013-03-02 12:14:00,
2013-03-02 07:15:00,30.2,26.8,29.53,SSE,151,0.0,0.0,87,0.00,,OVC025,0.00,VWS V14.01,2013-03-02 12:15:00,
2013-03-02 07:16:00,30.2,26.8,29.52,SSE,151,0.0,0.0,87,0.00,,OVC026,0.00,VWS V14.01,2013-03-02 12:16:00,
2013-03-02 07:17:00,30.2,26.8,29.53,SSE,151,0.0,0.0,87,0.00,,OVC026,0.00,VWS V14.01,2013-03-02 12:17:00,
2013-03-02 07:18:00,30.1,26.7,29.53,SSE,151,0.0,0.0,87,0.00,,OVC026,0.00,VWS V14.01,2013-03-02 12:18:00,
2013-03-02 07:19:00,30.1,26.7,29.53,SSE,151,0.0,0.0,87,0.00,,OVC026,0.00,VWS V14.01,2013-03-02 12:19:00,
2013-03-02 07:20:00,30.1,26.7,29.53,SSE,151,0.0,0.0,87,0.00,,OVC025,0.00,VWS V14.01,2013-03-02 12:20:00,
2013-03-02 07:21:00,30.1,26.7,29.53,SSE,151,0.0,0.0,87,0.00,,OVC026,0.00,VWS V14.01,2013-03-02 12:21:00,
2013-03-02 07:22:00,30.1,26.7,29.53,SSE,151,0.0,0.0,87,0.00,,OVC026,0.00,VWS V14.01,2013-03-02 12:22:00,
2013-03-02 07:23:00,30.1,26.7,29.53,SSE,151,0.0,0.0,87,0.00,,OVC026,0.00,VWS V14.01,2013-03-02 12:23:00,
2013-03-02 07:24:00,30.1,26.7,29.53,SSE,151,0.0,0.0,87,0.00,,OVC026,0.00,VWS V14.01,2013-03-02 12:24:00,
2013-03-02 07:25:00,30.1,26.7,29.53,SSE,151,0.0,0.0,87,0.00,,OVC031,0.00,VWS V14.01,2013-03-02 12:25:00,
2013-03-02 07:26:00,30.2,26.8,29.53,NE,34,0.0,1.0,87,0.00,,OVC026,0.00,VWS V14.01,2013-03-02 12:26:00,
2013-03-02 07:27:00,30.2,26.8,29.53,NE,34,0.0,0.0,87,0.00,,OVC026,0.00,VWS V14.01,2013-03-02 12:27:00,
2013-03-02 07:28:00,30.3,26.9,29.53,ESE,103,0.0,1.0,87,0.00,,OVC026,0.00,VWS V14.01,2013-03-02 12:28:00,
2013-03-02 07:29:00,30.3,26.9,29.53,ESE,103,0.0,0.0,87,0.00,,OVC026,0.00,VWS V14.01,2013-03-02 12:29:00,
2013-03-02 07:30:00,30.3,26.9,29.53,ESE,103,1.0,1.0,87,0.00,,OVC031,0.00,VWS V14.01,2013-03-02 12:30:00,
2013-03-02 07:31:00,30.5,27.1,29.53,ESE,103,0.0,0.0,87,0.00,,OVC026,0.00,VWS V14.01,2013-03-02 12:31:00,
2013-03-02 07:32:00,30.5,27.1,29.53,ESE,103,0.0,0.0,87,0.00,,OVC026,0.00,VWS V14.01,2013-03-02 12:32:00,
2013-03-02 07:33:00,30.5,27.1,29.53,ESE,103,0.0,0.0,87,0.00,,OVC026,0.00,VWS V14.01,2013-03-02 12:33:00,
2013-03-02 07:34:00,30.6,27.2,29.53,ESE,103,0.0,0.0,87,0.00,,OVC026,0.00,VWS V14.01,2013-03-02 12:34:00,
2013-03-02 07:35:00,30.5,27.1,29.53,ESE,103,0.0,0.0,87,0.00,,OVC031,0.00,VWS V14.01,2013-03-02 12:35:00,
2013-03-02 07:36:00,30.7,27.3,29.53,ESE,103,0.0,0.0,87,0.00,,OVC026,0.00,VWS V14.01,2013-03-02 12:36:00,
2013-03-02 07:37:00,30.7,27.3,29.53,ESE,103,0.0,0.0,87,0.00,,OVC026,0.00,VWS V14.01,2013-03-02 12:37:00,
2013-03-02 07:38:00,30.7,27.3,29.53,ESE,103,0.0,0.0,87,0.00,,OVC026,0.00,VWS V14.01,2013-03-02 12:38:00,
2013-03-02 07:39:00,30.7,27.3,29.53,ESE,103,0.0,0.0,87,0.00,,OVC026,0.00,VWS V14.01,2013-03-02 12:39:00,
2013-03-02 07:40:00,30.7,27.3,29.53,ESE,103,0.0,0.0,87,0.00,,OVC031,0.00,VWS V14.01,2013-03-02 12:40:00,
2013-03-02 07:41:00,30.8,27.4,29.53,SE,126,0.0,2.0,87,0.00,,OVC026,0.00,VWS V14.01,2013-03-02 12:41:00,
2013-03-02 07:42:00,30.9,27.5,29.53,SE,126,0.0,0.0,87,0.00,,OVC026,0.00,VWS V14.01,2013-03-02 12:42:00,
2013-03-02 07:43:00,30.9,27.5,29.53,SE,126,0.0,0.0,87,0.00,,OVC026,0.00,VWS V14.01,2013-03-02 12:43:00,
2013-03-02 07:44:00,31.0,27.6,29.52,ESE,123,0.0,0.0,87,0.00,,OVC026,0.00,VWS V14.01,2013-03-02 12:44:00,
2013-03-02 07:45:00,30.9,27.5,29.53,SE,126,0.0,0.0,87,0.00,,OVC031,0.00,VWS V14.01,2013-03-02 12:45:00,
2013-03-02 07:46:00,31.1,27.7,29.53,SE,124,0.0,0.0,87,0.00,,OVC026,0.00,VWS V14.01,2013-03-02 12:46:00,
2013-03-02 07:47:00,31.1,27.7,29.53,North,5,1.0,2.0,87,0.00,,OVC026,0.00,VWS V14.01,2013-03-02 12:47:00,
2013-03-02 07:48:00,31.2,27.5,29.52,South,172,0.0,2.0,86,0.00,,OVC026,0.00,VWS V14.01,2013-03-02 12:48:00,
2013-03-02 07:49:00,31.2,27.8,29.53,South,171,0.0,0.0,87,0.00,,OVC026,0.00,VWS V14.01,2013-03-02 12:49:00,
2013-03-02 07:50:00,31.2,27.5,29.52,South,172,0.0,2.0,86,0.00,,OVC031,0.00,VWS V14.01,2013-03-02 12:50:00,
2013-03-02 07:51:00,31.4,28.0,29.53,South,171,0.0,0.0,87,0.00,,OVC026,0.00,VWS V14.01,2013-03-02 12:51:00,
2013-03-02 07:52:00,31.4,27.7,29.53,SSE,167,0.0,1.0,86,0.00,,OVC026,0.00,VWS V14.01,2013-03-02 12:52:00,
2013-03-02 07:53:00,31.5,27.8,29.53,SSE,168,1.0,1.0,86,0.00,,OVC026,0.00,VWS V14.01,2013-03-02 12:53:00,
2013-03-02 07:54:00,31.5,27.8,29.53,South,169,0.0,2.0,86,0.00,,OVC026,0.00,VWS V14.01,2013-03-02 12:54:00,
2013-03-02 07:55:00,31.5,27.8,29.53,SSE,168,1.0,1.0,86,0.00,,OVC031,0.00,VWS V14.01,2013-03-02 12:55:00,
2013-03-02 07:56:00,31.6,27.9,29.53,South,169,0.0,1.0,86,0.00,,OVC026,0.00,VWS V14.01,2013-03-02 12:56:00,
2013-03-02 07:57:00,31.7,28.0,29.53,South,169,0.0,0.0,86,0.00,,OVC026,0.00,VWS V14.01,2013-03-02 12:57:00,
2013-03-02 07:58:00,31.7,28.0,29.53,South,169,0.0,0.0,86,0.00,,OVC026,0.00,VWS V14.01,2013-03-02 12:58:00,
2013-03-02 07:59:00,31.7,28.0,29.53,South,169,0.0,0.0,86,0.00,,OVC026,0.00,VWS V14.01,2013-03-02 12:59:00,
2013-03-02 08:00:00,31.7,28.0,29.53,South,169,0.0,0.0,86,0.00,,BKN030,0.00,VWS V14.01,2013-03-02 13:00:00,
2013-03-02 08:01:00,31.9,27.9,29.53,North,355,0.0,4.0,85,0.00,,OVC026,0.00,VWS V14.01,2013-03-02 13:01:00,
2013-03-02 08:02:00,32.0,27.7,29.53,North,355,0.0,0.0,84,0.00,,OVC026,0.00,VWS V14.01,2013-03-02 13:02:00,
2013-03-02 08:03:00,32.0,28.0,29.53,North,355,0.0,0.0,85,0.00,,OVC026,0.00,VWS V14.01,2013-03-02 13:03:00,
2013-03-02 08:04:00,32.1,28.1,29.53,North,355,0.0,0.0,85,0.00,,OVC026,0.00,VWS V14.01,2013-03-02 13:04:00,
2013-03-02 08:05:00,32.0,28.0,29.53,North,355,0.0,0.0,85,0.00,,BKN030,0.00,VWS V14.01,2013-03-02 13:05:00,
2013-03-02 08:06:00,32.3,28.0,29.53,SE,144,0.0,1.0,84,0.00,,OVC026,0.00,VWS V14.01,2013-03-02 13:06:00,
2013-03-02 08:07:00,32.3,28.0,29.53,SE,144,0.0,0.0,84,0.00,,OVC026,0.00,VWS V14.01,2013-03-02 13:07:00,
2013-03-02 08:08:00,32.4,28.1,29.53,SE,144,1.0,1.0,84,0.00,,OVC026,0.00,VWS V14.01,2013-03-02 13:08:00,
2013-03-02 08:09:00,32.5,28.2,29.53,NNW,336,1.0,4.0,84,0.00,,OVC026,0.00,VWS V14.01,2013-03-02 13:09:00,
2013-03-02 08:10:00,32.4,28.1,29.53,SE,144,1.0,1.0,84,0.00,,BKN030,0.00,VWS V14.01,2013-03-02 13:10:00,
2013-03-02 08:11:00,32.7,28.1,29.53,NNE,21,0.0,2.0,83,0.00,,OVC026,0.00,VWS V14.01,2013-03-02 13:11:00,
2013-03-02 08:12:00,32.8,28.5,29.53,South,175,1.0,6.0,84,0.00,,OVC026,0.00,VWS V14.01,2013-03-02 13:12:00,
2013-03-02 08:13:00,32.8,28.5,29.53,NNW,337,1.0,2.0,84,0.00,,OVC026,0.00,VWS V14.01,2013-03-02 13:13:00,
2013-03-02 08:14:00,32.9,28.6,29.53,NNW,337,2.0,3.0,84,0.00,,OVC026,0.00,VWS V14.01,2013-03-02 13:14:00,
2013-03-02 08:15:00,32.8,28.5,29.53,NNW,337,1.0,2.0,84,0.00,,BKN030,0.00,VWS V14.01,2013-03-02 13:15:00,
2013-03-02 08:16:00,33.0,28.4,29.53,North,5,0.0,0.0,83,0.00,,OVC026,0.00,VWS V14.01,2013-03-02 13:16:00,
2013-03-02 08:17:00,33.1,28.5,29.53,NE,42,0.0,0.0,83,0.00,,OVC026,0.00,VWS V14.01,2013-03-02 13:17:00,
2013-03-02 08:18:00,33.2,28.3,29.53,NE,42,0.0,1.0,82,0.00,,OVC026,0.00,VWS V14.01,2013-03-02 13:18:00,
2013-03-02 08:19:00,33.2,28.0,29.53,North,5,0.0,2.0,81,0.00,,OVC026,0.00,VWS V14.01,2013-03-02 13:19:00,
2013-03-02 08:20:00,33.2,28.3,29.53,NE,42,0.0,1.0,82,0.00,,BKN030,0.00,VWS V14.01,2013-03-02 13:20:00,
2013-03-02 08:21:00,33.3,28.4,29.53,South,169,0.0,3.0,82,0.00,,OVC026,0.00,VWS V14.01,2013-03-02 13:21:00,
2013-03-02 08:22:00,33.4,28.8,29.53,South,170,0.0,1.0,83,0.00,,OVC026,0.00,VWS V14.01,2013-03-02 13:22:00,
2013-03-02 08:23:00,33.4,28.8,29.53,NNE,20,2.0,2.0,83,0.00,,OVC026,0.00,VWS V14.01,2013-03-02 13:23:00,
2013-03-02 08:24:00,33.5,28.6,29.53,North,355,0.0,4.0,82,0.00,,OVC026,0.00,VWS V14.01,2013-03-02 13:24:00,
2013-03-02 08:25:00,33.4,28.8,29.53,NNE,20,2.0,2.0,83,0.00,,OVC030,0.00,VWS V14.01,2013-03-02 13:25:00,
2013-03-02 08:26:00,33.5,28.6,29.53,North,355,0.0,0.0,82,0.00,,OVC026,0.00,VWS V14.01,2013-03-02 13:26:00,
2013-03-02 08:27:00,33.6,28.7,29.53,North,355,0.0,2.0,82,0.00,,OVC026,0.00,VWS V14.01,2013-03-02 13:27:00,
2013-03-02 08:28:00,33.6,29.0,29.53,SE,134,0.0,3.0,83,0.00,,OVC026,0.00,VWS V14.01,2013-03-02 13:28:00,
2013-03-02 08:29:00,33.6,29.0,29.53,SE,139,0.0,0.0,83,0.00,,OVC026,0.00,VWS V14.01,2013-03-02 13:29:00,
2013-03-02 08:30:00,33.6,29.0,29.53,SE,134,0.0,3.0,83,0.00,,OVC030,0.00,VWS V14.01,2013-03-02 13:30:00,
2013-03-02 08:31:00,33.7,28.8,29.53,North,360,3.0,3.0,82,0.00,,OVC026,0.00,VWS V14.01,2013-03-02 13:31:00,
2013-03-02 08:32:00,33.7,28.5,29.53,NE,37,0.0,3.0,81,0.00,,OVC026,0.00,VWS V14.01,2013-03-02 13:32:00,
2013-03-02 08:33:00,33.8,28.6,29.53,NNE,31,0.0,1.0,81,0.00,,OVC026,0.00,VWS V14.01,2013-03-02 13:33:00,
2013-03-02 08:34:00,33.9,28.7,29.53,NNE,31,0.0,1.0,81,0.00,,OVC026,0.00,VWS V14.01,2013-03-02 13:34:00,
2013-03-02 08:35:00,33.8,28.6,29.53,NNE,31,0.0,1.0,81,0.00,,OVC030,0.00,VWS V14.01,2013-03-02 13:35:00,
2013-03-02 08:36:00,34.0,28.8,29.53,North,5,0.0,2.0,81,0.00,,OVC026,0.00,VWS V14.01,2013-03-02 13:36:00,
2013-03-02 08:37:00,34.1,28.9,29.53,NE,47,1.0,2.0,81,0.00,,OVC026,0.00,VWS V14.01,2013-03-02 13:37:00,
2013-03-02 08:38:00,34.2,28.7,29.53,NNW,338,3.0,6.0,80,0.00,,OVC026,0.00,VWS V14.01,2013-03-02 13:38:00,
2013-03-02 08:39:00,34.3,28.8,29.53,NNW,336,1.0,3.0,80,0.00,,OVC026,0.00,VWS V14.01,2013-03-02 13:39:00,
2013-03-02 08:40:00,34.2,28.7,29.53,NNW,344,3.0,6.0,80,0.00,,OVC030,0.00,VWS V14.01,2013-03-02 13:40:00,
2013-03-02 08:41:00,34.4,29.5,29.53,NNW,340,1.0,2.0,82,0.00,,OVC026,0.00,VWS V14.01,2013-03-02 13:41:00,
2013-03-02 08:42:00,34.4,29.5,29.53,East,88,0.0,2.0,82,0.00,,OVC026,0.00,VWS V14.01,2013-03-02 13:42:00,
2013-03-02 08:43:00,34.4,29.2,29.53,North,11,0.0,2.0,81,0.00,,OVC026,0.00,VWS V14.01,2013-03-02 13:43:00,
2013-03-02 08:44:00,34.5,29.6,29.53,NNE,15,0.0,2.0,82,0.00,,OVC026,0.00,VWS V14.01,2013-03-02 13:44:00,
2013-03-02 08:45:00,34.4,29.2,29.53,North,11,0.0,2.0,81,0.00,,OVC030,0.00,VWS V14.01,2013-03-02 13:45:00,
2013-03-02 08:46:00,34.7,29.5,29.53,NNE,15,0.0,1.0,81,0.00,,OVC026,0.00,VWS V14.01,2013-03-02 13:46:00,
2013-03-02 08:47:00,34.8,29.6,29.53,ESE,115,0.0,2.0,81,0.00,,OVC026,0.00,VWS V14.01,2013-03-02 13:47:00,
2013-03-02 08:48:00,34.8,29.3,29.53,NE,39,0.0,1.0,80,0.00,,OVC026,0.00,VWS V14.01,2013-03-02 13:48:00,
2013-03-02 08:49:00,34.9,29.4,29.53,North,360,0.0,2.0,80,0.00,,OVC026,0.00,VWS V14.01,2013-03-02 13:49:00,
2013-03-02 08:50:00,34.8,29.3,29.53,NE,35,0.0,1.0,80,0.00,,OVC030,0.00,VWS V14.01,2013-03-02 13:50:00,
2013-03-02 08:51:00,35.1,29.6,29.53,SE,143,0.0,2.0,80,0.00,,OVC026,0.00,VWS V14.01,2013-03-02 13:51:00,
2013-03-02 08:52:00,35.2,29.7,29.53,South,188,2.0,2.0,80,0.00,,OVC026,0.00,VWS V14.01,2013-03-02 13:52:00,
2013-03-02 08:53:00,35.2,30.3,29.53,South,171,0.0,3.0,82,0.00,,OVC026,0.00,VWS V14.01,2013-03-02 13:53:00,
2013-03-02 08:54:00,35.3,30.4,29.53,South,182,0.0,3.0,82,0.00,,OVC026,0.00,VWS V14.01,2013-03-02 13:54:00,
2013-03-02 08:55:00,35.2,30.0,29.53,South,169,1.0,3.0,81,0.00,,OVC030,0.00,VWS V14.01,2013-03-02 13:55:00,
2013-03-02 08:56:00,35.3,30.1,29.53,South,169,3.0,5.0,81,0.00,,OVC026,0.00,VWS V14.01,2013-03-02 13:56:00,
2013-03-02 08:57:00,35.3,30.1,29.53,South,181,3.0,5.0,81,0.00,,OVC026,0.00,VWS V14.01,2013-03-02 13:57:00,
2013-03-02 08:58:00,35.4,30.5,29.53,SSE,160,2.0,4.0,82,0.00,,OVC026,0.00,VWS V14.01,2013-03-02 13:58:00,
2013-03-02 08:59:00,35.4,30.5,29.53,South,173,2.0,3.0,82,0.00,,OVC026,0.00,VWS V14.01,2013-03-02 13:59:00,
2013-03-02 09:00:00,35.4,30.5,29.53,SSE,160,2.0,4.0,82,0.00,,OVC023,0.00,VWS V14.01,2013-03-02 14:00:00,
2013-03-02 09:01:00,35.4,30.5,29.53,South,178,0.0,1.0,82,0.00,,OVC026,0.00,VWS V14.01,2013-03-02 14:01:00,
2013-03-02 09:02:00,35.4,30.2,29.53,SE,139,0.0,0.0,81,0.00,,OVC026,0.00,VWS V14.01,2013-03-02 14:02:00,
2013-03-02 09:03:00,35.4,30.2,29.53,South,184,0.0,5.0,81,0.00,,OVC026,0.00,VWS V14.01,2013-03-02 14:03:00,
2013-03-02 09:04:00,35.4,29.9,29.53,North,355,0.0,2.0,80,0.00,,OVC026,0.00,VWS V14.01,2013-03-02 14:04:00,
2013-03-02 09:05:00,35.4,30.2,29.53,South,183,0.0,5.0,81,0.00,,OVC023,0.00,VWS V14.01,2013-03-02 14:05:00,
2013-03-02 09:06:00,35.5,30.0,29.53,NE,37,0.0,1.0,80,0.00,,OVC026,0.00,VWS V14.01,2013-03-02 14:06:00,
2013-03-02 09:07:00,35.5,30.0,29.53,North,360,3.0,3.0,80,0.00,,OVC026,0.00,VWS V14.01,2013-03-02 14:07:00,
2013-03-02 09:08:00,35.5,29.6,29.53,NNW,335,2.0,4.0,79,0.00,,OVC026,0.00,VWS V14.01,2013-03-02 14:08:00,
2013-03-02 09:09:00,35.6,29.7,29.53,NNW,335,0.0,3.0,79,0.00,,OVC026,0.00,VWS V14.01,2013-03-02 14:09:00,
2013-03-02 09:10:00,35.5,29.6,29.53,North,349,3.0,4.0,79,0.00,,OVC023,0.00,VWS V14.01,2013-03-02 14:10:00,
2013-03-02 09:11:00,35.6,29.7,29.53,East,101,0.0,1.0,79,0.00,,OVC026,0.00,VWS V14.01,2013-03-02 14:11:00,
2013-03-02 09:12:00,35.6,29.7,29.53,East,101,0.0,0.0,79,0.00,,OVC026,0.00,VWS V14.01,2013-03-02 14:12:00,
2013-03-02 09:13:00,35.7,29.8,29.53,NNE,28,0.0,1.0,79,0.00,,OVC026,0.00,VWS V14.01,2013-03-02 14:13:00,
2013-03-02 09:14:00,35.7,29.5,29.53,East,89,0.0,0.0,78,0.00,,OVC026,0.00,VWS V14.01,2013-03-02 14:14:00,
2013-03-02 09:15:00,35.6,29.7,29.53,NNE,25,1.0,1.0,79,0.00,,OVC023,0.00,VWS V14.01,2013-03-02 14:15:00,
2013-03-02 09:16:00,35.7,29.5,29.53,East,94,0.0,1.0,78,0.00,,OVC026,0.00,VWS V14.01,2013-03-02 14:16:00,
2013-03-02 09:17:00,35.7,29.8,29.53,East,94,0.0,0.0,79,0.00,,OVC026,0.00,VWS V14.01,2013-03-02 14:17:00,
2013-03-02 09:18:00,35.7,30.1,29.53,East,94,0.0,0.0,80,0.00,,OVC026,0.00,VWS V14.01,2013-03-02 14:18:00,
2013-03-02 09:19:00,35.8,30.2,29.53,South,169,0.0,2.0,80,0.00,,OVC026,0.00,VWS V14.01,2013-03-02 14:19:00,
2013-03-02 09:20:00,35.7,30.1,29.53,East,94,0.0,0.0,80,0.00,,OVC023,0.00,VWS V14.01,2013-03-02 14:20:00,
2013-03-02 09:21:00,35.8,30.5,29.53,South,180,0.0,1.0,81,0.00,,OVC026,0.00,VWS V14.01,2013-03-02 14:21:00,
2013-03-02 09:22:00,35.8,30.5,29.53,South,185,0.0,1.0,81,0.00,,OVC026,0.00,VWS V14.01,2013-03-02 14:22:00,
2013-03-02 09:23:00,35.9,30.6,29.53,South,185,0.0,0.0,81,0.00,,OVC026,0.00,VWS V14.01,2013-03-02 14:23:00,
2013-03-02 09:24:00,35.9,30.6,29.53,South,184,0.0,0.0,81,0.00,,OVC026,0.00,VWS V14.01,2013-03-02 14:24:00,
2013-03-02 09:25:00,35.9,30.6,29.53,South,185,0.0,0.0,81,0.00,,OVC023,0.00,VWS V14.01,2013-03-02 14:25:00,
2013-03-02 09:26:00,35.9,30.6,29.53,East,94,0.0,0.0,81,0.00,,OVC026,0.00,VWS V14.01,2013-03-02 14:26:00,
2013-03-02 09:27:00,35.9,30.3,29.53,NNW,337,1.0,5.0,80,0.00,,OVC026,0.00,VWS V14.01,2013-03-02 14:27:00,
2013-03-02 09:28:00,35.9,30.0,29.53,NNW,337,0.0,1.0,79,0.00,,OVC026,0.00,VWS V14.01,2013-03-02 14:28:00,
2013-03-02 09:29:00,35.9,30.3,29.53,North,355,0.0,1.0,80,0.00,,OVC026,0.00,VWS V14.01,2013-03-02 14:29:00,
2013-03-02 09:30:00,35.9,30.0,29.53,NNW,337,0.0,1.0,79,0.00,,OVC023,0.00,VWS V14.01,2013-03-02 14:30:00,
2013-03-02 09:31:00,35.9,30.0,29.53,NNE,17,0.0,2.0,79,0.00,,OVC026,0.00,VWS V14.01,2013-03-02 14:31:00,
2013-03-02 09:32:00,35.9,30.0,29.53,NNE,18,0.0,0.0,79,0.00,,OVC026,0.00,VWS V14.01,2013-03-02 14:32:00,
2013-03-02 09:33:00,35.9,30.0,29.53,North,5,2.0,3.0,79,0.00,,OVC026,0.00,VWS V14.01,2013-03-02 14:33:00,
2013-03-02 09:34:00,36.0,30.1,29.53,North,355,1.0,2.0,79,0.00,,OVC026,0.00,VWS V14.01,2013-03-02 14:34:00,
2013-03-02 09:35:00,36.0,30.1,29.53,NNE,18,0.0,1.0,79,0.00,,OVC023,0.00,VWS V14.01,2013-03-02 14:35:00,
2013-03-02 09:36:00,36.0,29.8,29.52,NNE,32,0.0,0.0,78,0.00,,OVC026,0.00,VWS V14.01,2013-03-02 14:36:00,
2013-03-02 09:37:00,36.1,29.9,29.52,SE,127,0.0,1.0,78,0.00,,OVC026,0.00,VWS V14.01,2013-03-02 14:37:00,
2013-03-02 09:38:00,36.1,30.2,29.52,SE,130,0.0,2.0,79,0.00,,OVC026,0.00,VWS V14.01,2013-03-02 14:38:00,
2013-03-02 09:39:00,36.1,30.2,29.52,SE,130,0.0,0.0,79,0.00,,OVC026,0.00,VWS V14.01,2013-03-02 14:39:00,
2013-03-02 09:40:00,36.1,30.2,29.52,SE,130,0.0,2.0,79,0.00,,OVC023,0.00,VWS V14.01,2013-03-02 14:40:00,
2013-03-02 09:41:00,36.1,30.2,29.53,SE,130,0.0,0.0,79,0.00,,OVC026,0.00,VWS V14.01,2013-03-02 14:41:00,
2013-03-02 09:42:00,36.1,30.2,29.53,ESE,120,0.0,0.0,79,0.00,,OVC026,0.00,VWS V14.01,2013-03-02 14:42:00,
2013-03-02 09:43:00,36.2,30.3,29.53,SE,143,0.0,1.0,79,0.00,,OVC026,0.00,VWS V14.01,2013-03-02 14:43:00,
2013-03-02 09:44:00,36.2,30.6,29.53,SE,143,0.0,0.0,80,0.00,,OVC026,0.00,VWS V14.01,2013-03-02 14:44:00,
2013-03-02 09:45:00,36.1,30.2,29.53,SE,143,0.0,1.0,79,0.00,,OVC023,0.00,VWS V14.01,2013-03-02 14:45:00,
2013-03-02 09:46:00,36.2,30.3,29.52,NNE,18,0.0,3.0,79,0.00,,OVC026,0.00,VWS V14.01,2013-03-02 14:46:00,
2013-03-02 09:47:00,36.2,30.0,29.52,NNE,19,0.0,1.0,78,0.00,,OVC026,0.00,VWS V14.01,2013-03-02 14:47:00,
2013-03-02 09:48:00,36.2,30.0,29.52,NNW,331,2.0,2.0,78,0.00,,OVC026,0.00,VWS V14.01,2013-03-02 14:48:00,
2013-03-02 09:49:00,36.2,30.0,29.52,NNW,343,0.0,3.0,78,0.00,,OVC026,0.00,VWS V14.01,2013-03-02 14:49:00,
2013-03-02 09:50:00,36.2,30.0,29.52,NNE,22,1.0,1.0,78,0.00,,OVC023,0.00,VWS V14.01,2013-03-02 14:50:00,
2013-03-02 09:51:00,36.3,30.4,29.52,SSE,163,5.0,5.0,79,0.00,,OVC026,0.00,VWS V14.01,2013-03-02 14:51:00,
2013-03-02 09:52:00,36.3,30.7,29.52,SSE,155,1.0,5.0,80,0.00,,OVC026,0.00,VWS V14.01,2013-03-02 14:52:00,
2013-03-02 09:53:00,36.4,30.2,29.52,SSE,153,0.0,1.0,78,0.00,,OVC026,0.00,VWS V14.01,2013-03-02 14:53:00,
2013-03-02 09:54:00,36.4,30.5,29.52,SSE,156,0.0,1.0,79,0.00,,OVC026,0.00,VWS V14.01,2013-03-02 14:54:00,
2013-03-02 09:55:00,36.3,30.1,29.52,SSE,153,0.0,1.0,78,0.00,,OVC023,0.00,VWS V14.01,2013-03-02 14:55:00,
2013-03-02 09:56:00,36.4,30.5,29.52,South,180,3.0,6.0,79,0.00,,OVC026,0.00,VWS V14.01,2013-03-02 14:56:00,
2013-03-02 09:57:00,36.4,30.8,29.52,South,175,0.0,3.0,80,0.00,,OVC026,0.00,VWS V14.01,2013-03-02 14:57:00,
2013-03-02 09:58:00,36.4,30.5,29.52,NW,316,1.0,2.0,79,0.00,,OVC026,0.00,VWS V14.01,2013-03-02 14:58:00,
2013-03-02 09:59:00,36.4,30.5,29.52,North,9,0.0,2.0,79,0.00,,OVC026,0.00,VWS V14.01,2013-03-02 14:59:00,
2013-03-02 10:00:00,36.4,30.8,29.52,NW,316,0.0,2.0,80,0.00,,OVC025,0.00,VWS V14.01,2013-03-02 15:00:00,
2013-03-02 10:01:00,36.4,30.2,29.52,NE,35,0.0,0.0,78,0.00,,OVC026,0.00,VWS V14.01,2013-03-02 15:01:00,
2013-03-02 10:02:00,36.4,30.5,29.52,ENE,63,0.0,1.0,79,0.00,,OVC026,0.00,VWS V14.01,2013-03-02 15:02:00,
2013-03-02 10:03:00,36.4,29.9,29.52,East,84,0.0,2.0,77,0.00,,OVC026,0.00,VWS V14.01,2013-03-02 15:03:00,
2013-03-02 10:04:00,36.5,30.0,29.52,NNE,23,0.0,0.0,77,0.00,,OVC026,0.00,VWS V14.01,2013-03-02 15:04:00,
2013-03-02 10:05:00,36.4,29.9,29.52,North,351,2.0,2.0,77,0.00,,OVC025,0.00,VWS V14.01,2013-03-02 15:05:00,
2013-03-02 10:06:00,36.5,30.6,29.52,NNE,14,1.0,2.0,79,0.00,,OVC026,0.00,VWS V14.01,2013-03-02 15:06:00,
2013-03-02 10:07:00,36.5,30.0,29.52,North,5,0.0,2.0,77,0.00,,OVC026,0.00,VWS V14.01,2013-03-02 15:07:00,
2013-03-02 10:08:00,36.6,30.1,29.52,NNE,13,2.0,2.0,77,0.00,,OVC026,0.00,VWS V14.01,2013-03-02 15:08:00,
2013-03-02 10:09:00,36.6,30.1,29.52,North,11,0.0,2.0,77,0.00,,OVC026,0.00,VWS V14.01,2013-03-02 15:09:00,
2013-03-02 10:10:00,36.6,30.1,29.52,NNE,13,2.0,2.0,77,0.00,,OVC025,0.00,VWS V14.01,2013-03-02 15:10:00,
2013-03-02 10:11:00,36.7,30.5,29.52,East,101,1.0,1.0,78,0.00,,OVC026,0.00,VWS V14.01,2013-03-02 15:11:00,
2013-03-02 10:12:00,36.7,30.2,29.52,NNE,29,0.0,1.0,77,0.00,,OVC026,0.00,VWS V14.01,2013-03-02 15:12:00,
2013-03-02 10:13:00,36.7,30.2,29.52,NE,34,0.0,1.0,77,0.00,,OVC026,0.00,VWS V14.01,2013-03-02 15:13:00,
2013-03-02 10:14:00,36.7,30.5,29.52,ENE,68,0.0,0.0,78,0.00,,OVC026,0.00,VWS V14.01,2013-03-02 15:14:00,
2013-03-02 10:15:00,36.7,30.2,29.52,NE,34,0.0,1.0,77,0.00,,OVC025,0.00,VWS V14.01,2013-03-02 15:15:00,
2013-03-02 10:16:00,36.8,30.6,29.52,South,174,2.0,3.0,78,0.00,,OVC026,0.00,VWS V14.01,2013-03-02 15:16:00,
2013-03-02 10:17:00,36.8,30.6,29.52,North,5,1.0,2.0,78,0.00,,OVC026,0.00,VWS V14.01,2013-03-02 15:17:00,
2013-03-02 10:18:00,36.8,30.3,29.52,North,5,0.0,1.0,77,0.00,,OVC026,0.00,VWS V14.01,2013-03-02 15:18:00,
2013-03-02 10:19:00,36.9,30.7,29.52,North,5,0.0,1.0,78,0.00,,OVC026,0.00,VWS V14.01,2013-03-02 15:19:00,
2013-03-02 10:20:00,36.8,30.3,29.52,North,5,0.0,1.0,77,0.00,,OVC025,0.00,VWS V14.01,2013-03-02 15:20:00,
2013-03-02 10:21:00,36.9,30.7,29.52,WSW,247,0.0,0.0,78,0.00,,OVC026,0.00,VWS V14.01,2013-03-02 15:21:00,
2013-03-02 10:22:00,36.9,30.4,29.52,NNW,346,0.0,1.0,77,0.00,,OVC026,0.00,VWS V14.01,2013-03-02 15:22:00,
2013-03-02 10:23:00,36.9,30.7,29.52,South,178,0.0,1.0,78,0.00,,OVC026,0.00,VWS V14.01,2013-03-02 15:23:00,
2013-03-02 10:24:00,36.9,30.7,29.52,North,9,0.0,2.0,78,0.00,,OVC026,0.00,VWS V14.01,2013-03-02 15:24:00,
2013-03-02 10:25:00,36.9,30.7,29.52,South,178,0.0,1.0,78,0.00,,OVC025,0.00,VWS V14.01,2013-03-02 15:25:00,
2013-03-02 10:26:00,37.0,30.5,29.52,NE,49,0.0,4.0,77,0.00,,OVC026,0.00,VWS V14.01,2013-03-02 15:26:00,
2013-03-02 10:27:00,37.0,30.8,29.52,NE,48,1.0,1.0,78,0.00,,OVC026,0.00,VWS V14.01,2013-03-02 15:27:00,
2013-03-02 10:28:00,37.0,30.5,29.52,NE,48,0.0,0.0,77,0.00,,OVC026,0.00,VWS V14.01,2013-03-02 15:28:00,
2013-03-02 10:29:00,37.0,30.5,29.52,NE,40,1.0,1.0,77,0.00,,OVC026,0.00,VWS V14.01,2013-03-02 15:29:00,
2013-03-02 10:30:00,37.0,30.5,29.52,NE,48,0.0,0.0,77,0.00,,OVC025,0.00,VWS V14.01,2013-03-02 15:30:00,
2013-03-02 10:31:00,37.0,30.5,29.51,North,5,0.0,1.0,77,0.00,,OVC026,0.00,VWS V14.01,2013-03-02 15:31:00,
2013-03-02 10:32:00,37.0,30.5,29.51,NE,47,2.0,2.0,77,0.00,,OVC026,0.00,VWS V14.01,2013-03-02 15:32:00,
2013-03-02 10:33:00,37.0,30.5,29.52,NNW,329,0.0,4.0,77,0.00,,OVC026,0.00,VWS V14.01,2013-03-02 15:33:00,
2013-03-02 10:34:00,37.1,30.6,29.52,NW,326,0.0,4.0,77,0.00,,OVC026,0.00,VWS V14.01,2013-03-02 15:34:00,
2013-03-02 10:35:00,37.0,30.5,29.52,NNW,327,0.0,4.0,77,0.00,,OVC025,0.00,VWS V14.01,2013-03-02 15:35:00,
2013-03-02 10:36:00,37.1,30.6,29.52,North,355,1.0,2.0,77,0.00,,OVC026,0.00,VWS V14.01,2013-03-02 15:36:00,
2013-03-02 10:37:00,37.1,30.6,29.52,NNE,21,2.0,3.0,77,0.00,,OVC026,0.00,VWS V14.01,2013-03-02 15:37:00,
2013-03-02 10:38:00,37.1,30.2,29.52,North,355,1.0,3.0,76,0.00,,OVC026,0.00,VWS V14.01,2013-03-02 15:38:00,
2013-03-02 10:39:00,37.2,30.7,29.51,North,355,0.0,1.0,77,0.00,,OVC026,0.00,VWS V14.01,2013-03-02 15:39:00,
2013-03-02 10:40:00,37.1,30.2,29.52,North,355,0.0,3.0,76,0.00,,OVC025,0.00,VWS V14.01,2013-03-02 15:40:00,
2013-03-02 10:41:00,37.2,30.7,29.52,NW,309,1.0,3.0,77,0.00,,OVC026,0.00,VWS V14.01,2013-03-02 15:41:00,
2013-03-02 10:42:00,37.2,30.0,29.51,NW,305,2.0,6.0,75,0.00,,OVC026,0.00,VWS V14.01,2013-03-02 15:42:00,
2013-03-02 10:43:00,37.3,30.4,29.51,NNW,338,3.0,3.0,76,0.00,,OVC026,0.00,VWS V14.01,2013-03-02 15:43:00,
2013-03-02 10:44:00,37.3,30.8,29.51,NNW,342,2.0,4.0,77,0.00,,OVC026,0.00,VWS V14.01,2013-03-02 15:44:00,
2013-03-02 10:45:00,37.3,30.4,29.51,NNW,344,1.0,3.0,76,0.00,,OVC025,0.00,VWS V14.01,2013-03-02 15:45:00,
2013-03-02 10:46:00,37.3,30.1,29.51,NNE,17,2.0,5.0,75,0.00,,OVC026,0.00,VWS V14.01,2013-03-02 15:46:00,
2013-03-02 10:47:00,37.3,30.1,29.51,NNW,327,3.0,5.0,75,0.00,,OVC026,0.00,VWS V14.01,2013-03-02 15:47:00,
2013-03-02 10:48:00,37.3,30.4,29.51,North,355,0.0,3.0,76,0.00,,OVC026,0.00,VWS V14.01,2013-03-02 15:48:00,
2013-03-02 10:49:00,37.3,30.4,29.51,NNW,340,1.0,1.0,76,0.00,,OVC026,0.00,VWS V14.01,2013-03-02 15:49:00,
2013-03-02 10:50:00,37.3,30.4,29.51,North,355,0.0,3.0,76,0.00,,OVC025,0.00,VWS V14.01,2013-03-02 15:50:00,
2013-03-02 10:51:00,37.4,30.9,29.51,NNW,332,3.0,4.0,77,0.00,,OVC026,0.00,VWS V14.01,2013-03-02 15:51:00,
2013-03-02 10:52:00,37.4,30.5,29.51,North,360,1.0,3.0,76,0.00,,OVC026,0.00,VWS V14.01,2013-03-02 15:52:00,
2013-03-02 10:53:00,37.4,30.5,29.51,North,5,3.0,3.0,76,0.00,,OVC026,0.00,VWS V14.01,2013-03-02 15:53:00,
2013-03-02 10:54:00,37.4,30.2,29.51,North,355,1.0,3.0,75,0.00,,OVC026,0.00,VWS V14.01,2013-03-02 15:54:00,
2013-03-02 10:55:00,37.4,30.5,29.51,North,5,0.0,2.0,76,0.00,,OVC025,0.00,VWS V14.01,2013-03-02 15:55:00,
2013-03-02 10:56:00,37.4,30.5,29.51,NNW,331,0.0,2.0,76,0.00,,OVC026,0.00,VWS V14.01,2013-03-02 15:56:00,
2013-03-02 10:57:00,37.5,30.6,29.51,NNW,346,0.0,3.0,76,0.00,,OVC026,0.00,VWS V14.01,2013-03-02 15:57:00,
2013-03-02 10:58:00,37.5,30.6,29.51,North,9,5.0,6.0,76,0.00,,OVC026,0.00,VWS V14.01,2013-03-02 15:58:00,
2013-03-02 10:59:00,37.5,30.3,29.51,NNW,348,0.0,5.0,75,0.00,,OVC026,0.00,VWS V14.01,2013-03-02 15:59:00,
2013-03-02 11:00:00,37.5,30.6,29.51,NNW,344,4.0,4.0,76,0.00,,OVC026,0.00,VWS V14.01,2013-03-02 16:00:00,
2013-03-02 11:01:00,37.5,30.6,29.51,North,350,0.0,1.0,76,0.00,,OVC026,0.00,VWS V14.01,2013-03-02 16:01:00,
2013-03-02 11:02:00,37.5,30.6,29.51,North,11,0.0,1.0,76,0.00,,OVC026,0.00,VWS V14.01,2013-03-02 16:02:00,
2013-03-02 11:03:00,37.6,30.7,29.51,North,360,0.0,1.0,76,0.00,,OVC026,0.00,VWS V14.01,2013-03-02 16:03:00,
2013-03-02 11:04:00,37.6,30.7,29.51,NNW,334,0.0,3.0,76,0.00,,OVC026,0.00,VWS V14.01,2013-03-02 16:04:00,
2013-03-02 11:05:00,37.6,30.7,29.51,North,360,0.0,1.0,76,0.00,,OVC026,0.00,VWS V14.01,2013-03-02 16:05:00,
2013-03-02 11:06:00,37.7,30.8,29.51,NNW,335,0.0,2.0,76,0.00,,OVC026,0.00,VWS V14.01,2013-03-02 16:06:00,
2013-03-02 11:07:00,37.7,31.1,29.51,NW,323,2.0,2.0,77,0.00,,OVC026,0.00,VWS V14.01,2013-03-02 16:07:00,
2013-03-02 11:08:00,37.7,31.1,29.51,NNW,348,0.0,4.0,77,0.00,,OVC026,0.00,VWS V14.01,2013-03-02 16:08:00,
2013-03-02 11:09:00,37.7,30.8,29.51,NNW,331,0.0,2.0,76,0.00,,OVC026,0.00,VWS V14.01,2013-03-02 16:09:00,
2013-03-02 11:10:00,37.7,31.5,29.51,NW,324,1.0,4.0,78,0.00,,OVC026,0.00,VWS V14.01,2013-03-02 16:10:00,
2013-03-02 11:11:00,37.8,30.9,29.51,NNW,333,0.0,2.0,76,0.00,,OVC026,0.00,VWS V14.01,2013-03-02 16:11:00,
2013-03-02 11:12:00,37.8,31.2,29.51,North,0,0.0,0.0,77,0.00,,OVC026,0.00,VWS V14.01,2013-03-02 16:12:00,
2013-03-02 11:13:00,37.8,30.9,29.51,NNW,338,1.0,2.0,76,0.00,,OVC026,0.00,VWS V14.01,2013-03-02 16:13:00,
2013-03-02 11:23:00,37.9,31.4,29.51,SSE,158,0.0,1.0,77,0.00,,OVC026,0.00,VWS V14.01,2013-03-02 16:23:00,
2013-03-02 11:28:00,38.0,31.1,29.51,North,10,0.0,1.0,76,0.00,,OVC026,0.00,VWS V14.01,2013-03-02 16:28:00,
2013-03-02 11:33:00,38.0,31.1,29.51,NNE,22,0.0,0.0,76,0.00,,OVC026,0.00,VWS V14.01,2013-03-02 16:33:00,
2013-03-02 11:38:00,38.1,30.6,29.51,SE,131,1.0,1.0,74,0.00,,OVC026,0.00,VWS V14.01,2013-03-02 16:38:00,
2013-03-02 11:43:00,38.1,30.9,29.51,NNE,31,1.0,1.0,75,0.00,,OVC026,0.00,VWS V14.01,2013-03-02 16:43:00,
2013-03-02 11:48:00,38.1,31.2,29.51,North,355,0.0,0.0,76,0.00,,OVC026,0.00,VWS V14.01,2013-03-02 16:48:00,
2013-03-02 11:53:00,38.1,30.9,29.50,NNW,336,0.0,0.0,75,0.00,,OVC026,0.00,VWS V14.01,2013-03-02 16:53:00,
2013-03-02 11:58:00,38.1,31.5,29.50,NE,34,0.0,0.0,77,0.00,,OVC026,0.00,VWS V14.01,2013-03-02 16:58:00,
2013-03-02 12:03:00,38.2,31.3,29.50,NNW,341,0.0,0.0,76,0.00,,OVC026,0.00,VWS V14.01,2013-03-02 17:03:00,
2013-03-02 12:08:00,38.3,31.1,29.50,North,355,0.0,1.0,75,0.00,,OVC026,0.00,VWS V14.01,2013-03-02 17:08:00,
2013-03-02 12:13:00,38.3,30.4,29.50,NNW,331,3.0,3.0,73,0.00,,OVC026,0.00,VWS V14.01,2013-03-02 17:13:00,
2013-03-02 12:18:00,38.3,31.1,29.50,North,360,3.0,3.0,75,0.00,,OVC026,0.00,VWS V14.01,2013-03-02 17:18:00,
2013-03-02 12:23:00,38.3,30.8,29.49,ESE,105,1.0,1.0,74,0.00,,OVC026,0.00,VWS V14.01,2013-03-02 17:23:00,
2013-03-02 12:28:00,38.4,31.2,29.49,NNW,344,0.0,1.0,75,0.00,,OVC026,0.00,VWS V14.01,2013-03-02 17:28:00,
2013-03-02 12:33:00,38.5,31.9,29.49,South,178,0.0,0.0,77,0.00,,OVC026,0.00,VWS V14.01,2013-03-02 17:33:00,
2013-03-02 12:38:00,38.6,31.7,29.49,ENE,59,0.0,0.0,76,0.00,,OVC026,0.00,VWS V14.01,2013-03-02 17:38:00,
2013-03-02 12:43:00,38.6,30.7,29.49,NE,34,0.0,1.0,73,0.00,,OVC026,0.00,VWS V14.01,2013-03-02 17:43:00,
2013-03-02 12:48:00,38.8,31.6,29.49,North,360,0.0,0.0,75,0.00,,OVC026,0.00,VWS V14.01,2013-03-02 17:48:00,
2013-03-02 12:53:00,38.8,31.9,29.48,NNE,19,0.0,1.0,76,0.00,,OVC026,0.00,VWS V14.01,2013-03-02 17:53:00,
2013-03-02 12:58:00,38.8,31.6,29.48,NNE,15,0.0,0.0,75,0.00,,OVC026,0.00,VWS V14.01,2013-03-02 17:58:00,
2013-03-02 13:03:00,38.9,32.3,29.48,SE,132,0.0,0.0,77,0.00,,OVC027,0.00,VWS V14.01,2013-03-02 18:03:00,
2013-03-02 13:08:00,39.0,31.4,29.48,SSW,200,0.0,1.0,74,0.00,,OVC027,0.00,VWS V14.01,2013-03-02 18:08:00,
2013-03-02 13:13:00,39.1,31.5,29.48,NNE,27,0.0,0.0,74,0.00,,OVC027,0.00,VWS V14.01,2013-03-02 18:13:00,
2013-03-02 13:18:00,39.1,32.5,29.48,East,98,0.0,2.0,77,0.00,,OVC027,0.00,VWS V14.01,2013-03-02 18:18:00,
2013-03-02 13:23:00,39.1,31.9,29.48,NE,34,0.0,1.0,75,0.00,,OVC027,0.00,VWS V14.01,2013-03-02 18:23:00,
2013-03-02 13:28:00,39.0,31.8,29.48,NNW,333,0.0,0.0,75,0.00,,OVC027,0.00,VWS V14.01,2013-03-02 18:28:00,
2013-03-02 13:33:00,39.0,31.1,29.48,NNE,28,0.0,1.0,73,0.00,,OVC027,0.00,VWS V14.01,2013-03-02 18:33:00,
2013-03-02 13:38:00,38.9,31.7,29.48,North,5,0.0,0.0,75,0.00,,OVC027,0.00,VWS V14.01,2013-03-02 18:38:00,
2013-03-02 13:43:00,38.9,31.7,29.49,South,182,2.0,3.0,75,0.00,,OVC027,0.00,VWS V14.01,2013-03-02 18:43:00,
2013-03-02 13:48:00,38.8,31.9,29.49,NNE,24,0.0,0.0,76,0.00,,OVC027,0.00,VWS V14.01,2013-03-02 18:48:00,
2013-03-02 13:53:00,38.8,31.9,29.49,North,5,0.0,1.0,76,0.00,,OVC027,0.00,VWS V14.01,2013-03-02 18:53:00,
2013-03-02 13:58:00,38.7,32.1,29.49,NNE,19,0.0,0.0,77,0.00,,OVC027,0.00,VWS V14.01,2013-03-02 18:58:00,
2013-03-02 14:03:00,38.6,32.0,29.49,NNE,23,0.0,0.0,77,0.00,,OVC026,0.00,VWS V14.01,2013-03-02 19:03:00,
2013-03-02 14:08:00,38.6,31.4,29.49,NNE,17,0.0,0.0,75,0.00,,OVC026,0.00,VWS V14.01,2013-03-02 19:08:00,
2013-03-02 14:13:00,38.7,31.8,29.48,NE,41,3.0,3.0,76,0.00,,OVC026,0.00,VWS V14.01,2013-03-02 19:13:00,
2013-03-02 14:18:00,38.7,31.5,29.48,North,355,0.0,0.0,75,0.00,,OVC026,0.00,VWS V14.01,2013-03-02 19:18:00,
2013-03-02 14:23:00,38.6,32.3,29.48,South,185,2.0,2.0,78,0.00,,OVC026,0.00,VWS V14.01,2013-03-02 19:23:00,
2013-03-02 14:28:00,38.6,32.3,29.48,South,185,0.0,0.0,78,0.00,,OVC026,0.00,VWS V14.01,2013-03-02 19:28:00,
2013-03-02 14:33:00,38.5,31.9,29.48,NE,46,0.0,0.0,77,0.00,,OVC026,0.00,VWS V14.01,2013-03-02 19:33:00,
2013-03-02 14:38:00,38.4,31.8,29.49,NNE,14,0.0,0.0,77,0.00,,OVC026,0.00,VWS V14.01,2013-03-02 19:38:00,
2013-03-02 14:43:00,38.4,31.5,29.49,East,80,0.0,0.0,76,0.00,,OVC026,0.00,VWS V14.01,2013-03-02 19:43:00,
2013-03-02 14:48:00,38.3,31.7,29.49,NE,51,0.0,0.0,77,0.00,,OVC026,0.00,VWS V14.01,2013-03-02 19:48:00,
2013-03-02 14:53:00,38.2,31.6,29.49,East,84,0.0,0.0,77,0.00,,OVC026,0.00,VWS V14.01,2013-03-02 19:53:00,
2013-03-02 14:57:00,38.1,31.5,29.49,East,91,0.0,0.0,77,0.00,,OVC026,0.00,VWS V14.01,2013-03-02 19:57:00,
2013-03-02 15:03:00,38.0,31.8,29.48,SE,144,0.0,0.0,78,0.00,,OVC026,0.00,VWS V14.01,2013-03-02 20:03:00,
2013-03-02 15:08:00,37.9,32.3,29.48,SSE,153,0.0,1.0,80,0.00,,OVC026,0.00,VWS V14.01,2013-03-02 20:08:00,
2013-03-02 15:13:00,37.8,32.2,29.48,SSE,157,0.0,0.0,80,0.00,,OVC026,0.00,VWS V14.01,2013-03-02 20:13:00,
2013-03-02 15:18:00,37.7,32.1,29.49,SSE,159,0.0,0.0,80,0.00,,OVC026,0.00,VWS V14.01,2013-03-02 20:18:00,
2013-03-02 15:23:00,37.6,32.0,29.48,SSE,159,0.0,0.0,80,0.00,,OVC026,0.00,VWS V14.01,2013-03-02 20:23:00,
2013-03-02 15:28:00,37.5,31.9,29.48,SSW,202,0.0,0.0,80,0.00,,OVC026,0.00,VWS V14.01,2013-03-02 20:28:00,
2013-03-02 15:32:00,37.5,31.9,29.48,SSW,202,0.0,0.0,80,0.00,,OVC026,0.00,VWS V14.01,2013-03-02 20:32:00,
2013-03-02 15:37:00,37.5,32.2,29.48,SSW,202,0.0,0.0,81,0.00,,OVC026,0.00,VWS V14.01,2013-03-02 20:37:00,
2013-03-02 15:42:00,37.4,31.8,29.48,SE,144,0.0,1.0,80,0.00,,OVC026,0.00,VWS V14.01,2013-03-02 20:42:00,
2013-03-02 15:47:00,37.4,32.1,29.48,SE,144,0.0,0.0,81,0.00,,OVC026,0.00,VWS V14.01,2013-03-02 20:47:00,
2013-03-02 15:52:00,37.3,31.7,29.48,SSE,159,2.0,2.0,80,0.00,,OVC026,0.00,VWS V14.01,2013-03-02 20:52:00,
2013-03-02 15:57:00,37.2,31.9,29.48,SSE,159,0.0,0.0,81,0.00,,OVC026,0.00,VWS V14.01,2013-03-02 20:57:00,
2013-03-02 16:02:00,37.1,32.1,29.48,SSE,159,0.0,1.0,82,0.00,,OVC027,0.00,VWS V14.01,2013-03-02 21:02:00,
2013-03-02 16:07:00,37.0,32.0,29.48,SSE,159,0.0,0.0,82,0.00,,OVC027,0.00,VWS V14.01,2013-03-02 21:07:00,
2013-03-02 16:12:00,37.0,31.7,29.48,SSE,159,0.0,0.0,81,0.00,,OVC027,0.00,VWS V14.01,2013-03-02 21:12:00,
2013-03-02 16:17:00,36.9,31.6,29.48,SSE,159,0.0,0.0,81,0.00,,OVC027,0.00,VWS V14.01,2013-03-02 21:17:00,
2013-03-02 16:22:00,36.9,31.9,29.48,SSE,159,0.0,0.0,82,0.00,,OVC027,0.00,VWS V14.01,2013-03-02 21:22:00,
2013-03-02 16:27:00,36.8,31.8,29.48,SE,146,0.0,0.0,82,0.00,,OVC027,0.00,VWS V14.01,2013-03-02 21:27:00,
2013-03-02 16:32:00,36.7,31.4,29.48,SE,138,0.0,1.0,81,0.00,,OVC027,0.00,VWS V14.01,2013-03-02 21:32:00,
2013-03-02 16:37:00,36.7,31.7,29.48,SE,138,0.0,0.0,82,0.00,,OVC027,0.00,VWS V14.01,2013-03-02 21:37:00,
2013-03-02 16:42:00,36.6,31.6,29.48,SE,138,0.0,0.0,82,0.00,,OVC027,0.00,VWS V14.01,2013-03-02 21:42:00,
2013-03-02 16:47:00,36.6,31.6,29.48,SE,137,0.0,0.0,82,0.00,,OVC027,0.00,VWS V14.01,2013-03-02 21:47:00,
2013-03-02 16:52:00,36.5,31.5,29.48,SE,137,0.0,0.0,82,0.00,,OVC027,0.00,VWS V14.01,2013-03-02 21:52:00,
2013-03-02 16:57:00,36.4,31.4,29.48,SE,137,0.0,0.0,82,0.00,,OVC027,0.00,VWS V14.01,2013-03-02 21:57:00,
2013-03-02 17:02:00,36.3,31.6,29.49,SE,138,0.0,0.0,83,0.00,,OVC029,0.00,VWS V14.01,2013-03-02 22:02:00,
2013-03-02 17:07:00,36.2,31.5,29.49,SE,138,0.0,1.0,83,0.00,,OVC029,0.00,VWS V14.01,2013-03-02 22:07:00,
2013-03-02 17:12:00,36.2,31.5,29.48,SE,138,0.0,0.0,83,0.00,,OVC029,0.00,VWS V14.01,2013-03-02 22:12:00,
2013-03-02 17:17:00,36.1,31.5,29.49,SE,138,0.0,0.0,83,0.00,,OVC029,0.00,VWS V14.01,2013-03-02 22:17:00,
2013-03-02 17:22:00,36.0,31.4,29.49,SE,138,0.0,0.0,83,0.00,,OVC029,0.00,VWS V14.01,2013-03-02 22:22:00,
2013-03-02 17:27:00,35.9,31.5,29.49,SE,138,0.0,0.0,84,0.00,,OVC029,0.00,VWS V14.01,2013-03-02 22:27:00,
2013-03-02 17:32:00,35.9,31.5,29.49,NE,42,0.0,0.0,84,0.00,,OVC029,0.00,VWS V14.01,2013-03-02 22:32:00,
2013-03-02 17:37:00,36.0,31.4,29.49,NE,42,0.0,0.0,83,0.00,,OVC029,0.00,VWS V14.01,2013-03-02 22:37:00,
2013-03-02 17:42:00,36.1,31.5,29.49,NE,42,0.0,0.0,83,0.00,,OVC029,0.00,VWS V14.01,2013-03-02 22:42:00,
2013-03-02 17:47:00,36.1,31.5,29.49,NE,42,0.0,0.0,83,0.00,,OVC029,0.00,VWS V14.01,2013-03-02 22:47:00,
2013-03-02 17:52:00,36.0,31.0,29.50,NE,42,0.0,0.0,82,0.00,,OVC029,0.00,VWS V14.01,2013-03-02 22:52:00,
2013-03-02 17:57:00,36.0,31.0,29.50,ENE,65,0.0,0.0,82,0.00,,OVC029,0.00,VWS V14.01,2013-03-02 22:57:00,
2013-03-02 18:02:00,36.0,31.4,29.50,ENE,65,0.0,0.0,83,0.00,,OVC029,0.00,VWS V14.01,2013-03-02 23:02:00,
2013-03-02 18:07:00,35.9,31.2,29.50,ENE,65,0.0,0.0,83,0.00,,OVC029,0.00,VWS V14.01,2013-03-02 23:07:00,
2013-03-02 18:12:00,35.8,31.5,29.50,ENE,65,0.0,0.0,84,0.00,,OVC030,0.00,VWS V14.01,2013-03-02 23:12:00,
2013-03-02 18:17:00,35.6,31.2,29.50,ENE,65,0.0,0.0,84,0.00,,OVC030,0.00,VWS V14.01,2013-03-02 23:17:00,
2013-03-02 18:22:00,35.5,31.1,29.50,ENE,65,0.0,0.0,84,0.00,,OVC030,0.00,VWS V14.01,2013-03-02 23:22:00,
2013-03-02 18:27:00,35.4,31.1,29.50,ENE,65,0.0,0.0,84,0.00,,OVC030,0.00,VWS V14.01,2013-03-02 23:27:00,
2013-03-02 18:32:00,35.3,31.0,29.50,ENE,65,0.0,0.0,84,0.00,,OVC030,0.00,VWS V14.01,2013-03-02 23:32:00,
2013-03-02 18:37:00,35.3,31.0,29.50,ENE,65,0.0,0.0,84,0.00,,OVC030,0.00,VWS V14.01,2013-03-02 23:37:00,
2013-03-02 18:42:00,35.3,30.7,29.51,East,80,0.0,0.0,83,0.00,,OVC030,0.00,VWS V14.01,2013-03-02 23:42:00,
2013-03-02 18:47:00,35.3,30.7,29.51,East,80,0.0,0.0,83,0.00,,OVC030,0.00,VWS V14.01,2013-03-02 23:47:00,
2013-03-02 18:52:00,35.3,31.0,29.51,East,80,0.0,0.0,84,0.00,,OVC030,0.00,VWS V14.01,2013-03-02 23:52:00,
2013-03-02 18:57:00,35.3,31.0,29.51,East,80,0.0,0.0,84,0.00,,OVC030,0.00,VWS V14.01,2013-03-02 23:57:00,
2013-03-02 19:02:00,35.2,30.9,29.51,East,80,0.0,0.0,84,0.00,,OVC031,0.00,VWS V14.01,2013-03-03 00:02:00,
2013-03-02 19:07:00,35.2,31.1,29.51,East,80,0.0,0.0,85,0.00,,OVC031,0.00,VWS V14.01,2013-03-03 00:07:00,
2013-03-02 19:12:00,35.1,30.8,29.51,East,80,0.0,0.0,84,0.00,,OVC031,0.00,VWS V14.01,2013-03-03 00:12:00,
2013-03-02 19:17:00,35.1,30.8,29.51,East,80,0.0,0.0,84,0.00,,OVC031,0.00,VWS V14.01,2013-03-03 00:17:00,
2013-03-02 19:22:00,35.1,30.8,29.51,East,80,0.0,0.0,84,0.00,,OVC031,0.00,VWS V14.01,2013-03-03 00:22:00,
2013-03-02 19:27:00,35.0,31.0,29.51,East,80,0.0,0.0,85,0.00,,OVC031,0.00,VWS V14.01,2013-03-03 00:27:00,
2013-03-02 19:32:00,35.0,31.0,29.51,East,80,0.0,0.0,85,0.00,,OVC031,0.00,VWS V14.01,2013-03-03 00:32:00,
2013-03-02 19:37:00,34.9,30.9,29.51,East,80,0.0,0.0,85,0.00,,OVC031,0.00,VWS V14.01,2013-03-03 00:37:00,
2013-03-02 19:42:00,34.8,30.8,29.51,East,80,0.0,0.0,85,0.00,,OVC031,0.00,VWS V14.01,2013-03-03 00:42:00,
2013-03-02 19:47:00,34.8,30.8,29.51,SE,126,0.0,0.0,85,0.00,,OVC031,0.00,VWS V14.01,2013-03-03 00:47:00,
2013-03-02 19:52:00,34.7,30.7,29.51,North,349,3.0,3.0,85,0.00,,OVC031,0.00,VWS V14.01,2013-03-03 00:52:00,
2013-03-02 19:57:00,34.8,30.5,29.51,North,350,0.0,0.0,84,0.00,,OVC031,0.00,VWS V14.01,2013-03-03 00:57:00,
2013-03-02 20:02:00,34.9,30.6,29.51,North,349,0.0,0.0,84,0.00,,OVC032,0.00,VWS V14.01,2013-03-03 01:02:00,
2013-03-02 20:07:00,35.0,30.4,29.51,SSE,161,0.0,0.0,83,0.00,,OVC032,0.00,VWS V14.01,2013-03-03 01:07:00,
2013-03-02 20:12:00,35.0,30.4,29.51,SSE,161,0.0,0.0,83,0.00,,OVC032,0.00,VWS V14.01,2013-03-03 01:12:00,
2013-03-02 20:17:00,35.0,30.1,29.51,SSE,161,0.0,0.0,82,0.00,,OVC032,0.00,VWS V14.01,2013-03-03 01:17:00,
2013-03-02 20:22:00,35.1,29.9,29.51,SSE,161,0.0,0.0,81,0.00,,OVC032,0.00,VWS V14.01,2013-03-03 01:22:00,
2013-03-02 20:27:00,35.1,30.5,29.51,SSE,161,0.0,0.0,83,0.00,,OVC032,0.00,VWS V14.01,2013-03-03 01:27:00,
2013-03-02 20:32:00,35.0,30.1,29.51,SSE,167,0.0,0.0,82,0.00,,OVC032,0.00,VWS V14.01,2013-03-03 01:32:00,
2013-03-02 20:37:00,35.0,29.8,29.51,SSE,167,0.0,0.0,81,0.00,,OVC032,0.00,VWS V14.01,2013-03-03 01:37:00,
2013-03-02 20:42:00,35.1,30.5,29.51,SSE,167,0.0,0.0,83,0.00,,OVC032,0.00,VWS V14.01,2013-03-03 01:42:00,
2013-03-02 20:47:00,35.1,30.2,29.51,SE,139,0.0,1.0,82,0.00,,OVC032,0.00,VWS V14.01,2013-03-03 01:47:00,
2013-03-02 20:52:00,35.1,30.2,29.52,SE,139,0.0,0.0,82,0.00,,OVC032,0.00,VWS V14.01,2013-03-03 01:52:00,
2013-03-02 20:57:00,35.1,30.2,29.52,SE,144,0.0,0.0,82,0.00,,OVC032,0.00,VWS V14.01,2013-03-03 01:57:00,
2013-03-02 21:02:00,35.1,29.9,29.52,NNE,20,0.0,0.0,81,0.00,,OVC031,0.00,VWS V14.01,2013-03-03 02:02:00,
2013-03-02 21:07:00,35.1,29.9,29.52,ESE,114,0.0,0.0,81,0.00,,OVC031,0.00,VWS V14.01,2013-03-03 02:07:00,
2013-03-02 21:12:00,35.2,29.4,29.52,NNE,26,0.0,0.0,79,0.00,,OVC031,0.00,VWS V14.01,2013-03-03 02:12:00,
2013-03-02 21:17:00,35.3,29.5,29.52,NNE,32,0.0,0.0,79,0.00,,OVC031,0.00,VWS V14.01,2013-03-03 02:17:00,
2013-03-02 21:22:00,35.3,30.1,29.52,NNE,32,0.0,0.0,81,0.00,,OVC031,0.00,VWS V14.01,2013-03-03 02:22:00,
2013-03-02 21:27:00,35.3,29.8,29.52,NE,42,0.0,0.0,80,0.00,,OVC031,0.00,VWS V14.01,2013-03-03 02:27:00,
2013-03-02 21:32:00,35.2,29.4,29.52,NE,35,0.0,0.0,79,0.00,,OVC031,0.00,VWS V14.01,2013-03-03 02:32:00,
2013-03-02 21:37:00,35.2,29.4,29.51,North,355,1.0,1.0,79,0.00,,OVC031,0.00,VWS V14.01,2013-03-03 02:37:00,
2013-03-02 21:42:00,35.2,29.7,29.51,North,9,0.0,0.0,80,0.00,,OVC031,0.00,VWS V14.01,2013-03-03 02:42:00,
2013-03-02 21:47:00,35.1,29.9,29.51,North,9,0.0,0.0,81,0.00,,OVC031,0.00,VWS V14.01,2013-03-03 02:47:00,
2013-03-02 21:52:00,35.0,29.5,29.51,North,9,1.0,1.0,80,0.00,,OVC031,0.00,VWS V14.01,2013-03-03 02:52:00,
2013-03-02 21:57:00,34.9,29.4,29.51,North,9,0.0,2.0,80,0.00,,OVC031,0.00,VWS V14.01,2013-03-03 02:57:00,
2013-03-02 22:02:00,34.9,29.4,29.51,North,9,0.0,2.0,80,0.00,,OVC033,0.00,VWS V14.01,2013-03-03 03:02:00,
2013-03-02 22:07:00,34.8,29.6,29.51,ENE,57,0.0,0.0,81,0.00,,OVC033,0.00,VWS V14.01,2013-03-03 03:07:00,
2013-03-02 22:12:00,34.7,29.5,29.51,North,355,0.0,0.0,81,0.00,,OVC033,0.00,VWS V14.01,2013-03-03 03:12:00,
2013-03-02 22:17:00,34.7,29.5,29.51,North,5,0.0,1.0,81,0.00,,OVC033,0.00,VWS V14.01,2013-03-03 03:17:00,
2013-03-02 22:22:00,34.6,29.7,29.51,SE,129,0.0,0.0,82,0.00,,OVC033,0.00,VWS V14.01,2013-03-03 03:22:00,
2013-03-02 22:27:00,34.4,29.2,29.51,NNW,346,4.0,4.0,81,0.00,,OVC033,0.00,VWS V14.01,2013-03-03 03:27:00,
2013-03-02 22:32:00,34.4,29.5,29.50,NE,47,0.0,1.0,82,0.00,,OVC033,0.00,VWS V14.01,2013-03-03 03:32:00,
2013-03-02 22:37:00,34.4,29.2,29.50,NNE,26,0.0,0.0,81,0.00,,OVC033,0.00,VWS V14.01,2013-03-03 03:37:00,
2013-03-02 22:42:00,34.4,29.2,29.50,NNE,26,0.0,0.0,81,0.00,,OVC033,0.00,VWS V14.01,2013-03-03 03:42:00,
2013-03-02 22:47:00,34.4,29.8,29.50,North,11,0.0,0.0,83,0.00,,OVC033,0.00,VWS V14.01,2013-03-03 03:47:00,
2013-03-02 22:52:00,34.4,29.5,29.50,NNE,14,0.0,2.0,82,0.00,,OVC033,0.00,VWS V14.01,2013-03-03 03:52:00,
2013-03-02 22:57:00,34.4,29.8,29.50,NNE,14,0.0,0.0,83,0.00,,OVC033,0.00,VWS V14.01,2013-03-03 03:57:00,
2013-03-02 23:02:00,34.4,29.8,29.50,NNE,31,0.0,0.0,83,0.00,,OVC070,0.00,VWS V14.01,2013-03-03 04:02:00,
2013-03-02 23:07:00,34.3,29.7,29.50,NNE,31,0.0,0.0,83,0.00,,OVC070,0.00,VWS V14.01,2013-03-03 04:07:00,
2013-03-02 23:12:00,34.2,29.3,29.50,ENE,57,0.0,1.0,82,0.00,,OVC070,0.00,VWS V14.01,2013-03-03 04:12:00,
2013-03-02 23:17:00,34.2,29.6,29.50,East,84,0.0,0.0,83,0.00,,OVC070,0.00,VWS V14.01,2013-03-03 04:17:00,
2013-03-02 23:22:00,34.2,29.9,29.50,East,84,0.0,0.0,84,0.00,,OVC070,0.00,VWS V14.01,2013-03-03 04:22:00,
2013-03-02 23:27:00,34.1,29.8,29.50,East,84,0.0,0.0,84,0.00,,OVC070,0.00,VWS V14.01,2013-03-03 04:27:00,
2013-03-02 23:32:00,34.0,29.7,29.50,East,84,0.0,0.0,84,0.00,,OVC070,0.00,VWS V14.01,2013-03-03 04:32:00,
2013-03-02 23:37:00,33.9,29.3,29.50,East,84,0.0,0.0,83,0.00,,OVC070,0.00,VWS V14.01,2013-03-03 04:37:00,
2013-03-02 23:42:00,33.8,29.5,29.50,East,84,0.0,0.0,84,0.00,,OVC070,0.00,VWS V14.01,2013-03-03 04:42:00,
2013-03-02 23:47:00,33.8,29.8,29.50,East,84,0.0,0.0,85,0.00,,OVC070,0.00,VWS V14.01,2013-03-03 04:47:00,
2013-03-02 23:52:00,33.7,29.7,29.50,East,84,0.0,0.0,85,0.00,,OVC070,0.00,VWS V14.01,2013-03-03 04:52:00,
2013-03-02 23:57:00,33.7,29.7,29.50,East,84,0.0,0.0,85,0.00,,OVC070,0.00,VWS V14.01,2013-03-03 04:57:00,